| time (UTC) | temp F | wind direction | speed MPH | gust MPH | rain 1hr in | rain 24hr in | rain mn in | humidity % | barometer mb |
| 20260906223248 | 74 | 15 | 0.0 | 0.0 | 0.00 | 0.75 | 1.20 | 93 | 1014.4 |
| 20260906223148 | 74 | 43 | 0.0 | 0.0 | 0.00 | 0.75 | 1.20 | 93 | 1014.4 |
| 20260906223048 | 74 | 63 | 0.0 | 0.0 | 0.00 | 0.75 | 1.20 | 92 | 1014.4 |
| 20260906222948 | 74 | 23 | 0.0 | 0.0 | 0.00 | 0.75 | 1.20 | 92 | 1014.4 |
| 20260906222846 | 74 | 46 | 0.0 | 0.0 | 0.00 | 0.75 | 1.20 | 92 | 1014.3 |
| 20260906222744 | 74 | 32 | 0.0 | 0.0 | 0.00 | 0.75 | 1.20 | 91 | 1014.3 |
| 20260906222645 | 74 | 67 | 0.0 | 0.0 | 0.00 | 0.75 | 1.20 | 91 | 1014.2 |
| 20260906222543 | 74 | 39 | 0.0 | 0.0 | 0.00 | 0.75 | 1.20 | 91 | 1014.3 |
| 20260906222435 | 74 | 67 | 0.0 | 0.0 | 0.00 | 0.75 | 1.20 | 91 | 1014.2 |
| 20260906222337 | 74 | 88 | 0.0 | 0.0 | 0.00 | 0.75 | 1.20 | 91 | 1014.2 |
| 20260906222237 | 74 | 88 | 0.0 | 0.0 | 0.00 | 0.75 | 1.20 | 90 | 1014.2 |
| 20260906222134 | 74 | 90 | 0.0 | 0.0 | 0.00 | 0.75 | 1.20 | 90 | 1014.2 |
| 20260906222033 | 74 | 96 | 0.0 | 0.0 | 0.00 | 0.75 | 1.20 | 90 | 1014.2 |
| 20260906221932 | 74 | 97 | 0.0 | 0.0 | 0.00 | 0.75 | 1.20 | 90 | 1014.3 |
| 20260906221830 | 74 | 198 | 0.0 | 0.0 | 0.00 | 0.75 | 1.20 | 90 | 1014.2 |
| 20260906221730 | 74 | 198 | 0.0 | 0.0 | 0.00 | 0.75 | 1.20 | 90 | 1014.2 |
| 20260906221629 | 74 | 197 | 0.0 | 0.0 | 0.00 | 0.75 | 1.20 | 90 | 1014.2 |
| 20260906221527 | 74 | 197 | 0.0 | 0.0 | 0.00 | 0.75 | 1.20 | 90 | 1014.3 |
| 20260906221425 | 74 | 197 | 0.0 | 0.0 | 0.00 | 0.75 | 1.20 | 90 | 1014.3 |
| 20260906221323 | 74 | 190 | 0.0 | 0.0 | 0.00 | 0.75 | 1.20 | 89 | 1014.3 |
| 20260906221222 | 74 | 190 | 0.0 | 0.0 | 0.00 | 0.75 | 1.20 | 90 | 1014.4 |
| 20260906221123 | 74 | 189 | 0.0 | 0.0 | 0.00 | 0.75 | 1.20 | 90 | 1014.4 |
| 20260906221020 | 74 | 188 | 0.0 | 0.0 | 0.00 | 0.75 | 1.20 | 90 | 1014.4 |
| 20260906220915 | 74 | 188 | 0.0 | 0.0 | 0.00 | 0.75 | 1.20 | 90 | 1014.5 |
| 20260906220814 | 74 | 184 | 0.0 | 0.0 | 0.00 | 0.75 | 1.20 | 90 | 1014.5 |
| 20260906220714 | 74 | 184 | 0.0 | 0.0 | 0.00 | 0.75 | 1.20 | 90 | 1014.5 |
| 20260906220612 | 74 | 185 | 0.0 | 0.0 | 0.00 | 0.75 | 1.20 | 90 | 1014.4 |
| 20260906220510 | 74 | 184 | 0.0 | 0.0 | 0.00 | 0.75 | 1.20 | 90 | 1014.4 |
| 20260906220406 | 74 | 184 | 0.0 | 0.0 | 0.00 | 0.75 | 1.20 | 90 | 1014.3 |
| 20260906220305 | 74 | 156 | 0.0 | 0.0 | 0.00 | 0.75 | 1.20 | 90 | 1014.3 |
| 20260906220207 | 74 | 156 | 0.0 | 0.0 | 0.00 | 0.75 | 1.20 | 90 | 1014.4 |
| 20260906220106 | 74 | 156 | 0.0 | 0.0 | 0.00 | 0.75 | 1.20 | 90 | 1014.5 |
| 20260906220006 | 74 | 156 | 0.0 | 0.0 | 0.00 | 0.75 | 1.20 | 90 | 1014.5 |
| 20260906215858 | 74 | 159 | 0.0 | 0.0 | 0.00 | 0.75 | 1.20 | 90 | 1014.5 |
| 20260906215758 | 74 | 159 | 0.0 | 0.0 | 0.00 | 0.75 | 1.20 | 90 | 1014.5 |
| 20260906215659 | 74 | 159 | 0.0 | 0.0 | 0.00 | 0.75 | 1.20 | 90 | 1014.6 |
| 20260906215558 | 74 | 159 | 0.0 | 0.0 | 0.00 | 0.75 | 1.20 | 90 | 1014.6 |
| 20260906215459 | 74 | 159 | 0.0 | 0.0 | 0.00 | 0.75 | 1.20 | 90 | 1014.6 |
| 20260906215353 | 74 | 155 | 0.0 | 0.0 | 0.00 | 0.75 | 1.20 | 90 | 1014.6 |
| 20260906215252 | 74 | 154 | 0.0 | 0.0 | 0.00 | 0.75 | 1.20 | 90 | 1014.7 |
| 20260906215153 | 74 | 153 | 0.0 | 0.0 | 0.00 | 0.75 | 1.20 | 90 | 1014.7 |
| 20260906215050 | 74 | 153 | 0.0 | 0.0 | 0.00 | 0.75 | 1.20 | 90 | 1014.7 |
| 20260906214949 | 74 | 153 | 0.0 | 0.0 | 0.00 | 0.75 | 1.20 | 91 | 1014.8 |
| 20260906214849 | 74 | 153 | 0.0 | 0.0 | 0.00 | 0.75 | 1.20 | 91 | 1014.8 |
| 20260906214746 | 74 | 153 | 0.0 | 0.0 | 0.00 | 0.75 | 1.20 | 90 | 1014.8 |
| 20260906214647 | 74 | 153 | 0.0 | 0.0 | 0.00 | 0.75 | 1.20 | 90 | 1014.8 |
| 20260906214544 | 74 | 153 | 0.0 | 0.0 | 0.00 | 0.75 | 1.20 | 90 | 1014.8 |
| 20260906214442 | 74 | 153 | 0.0 | 0.0 | 0.00 | 0.75 | 1.20 | 90 | 1014.8 |
| 20260906214343 | 74 | 153 | 0.0 | 0.0 | 0.00 | 0.75 | 1.20 | 90 | 1014.8 |
| 20260906214239 | 74 | 153 | 0.0 | 0.0 | 0.00 | 0.75 | 1.20 | 90 | 1014.9 |
| 20260906214138 | 74 | 152 | 0.0 | 0.0 | 0.00 | 0.75 | 1.20 | 90 | 1014.9 |
| 20260906214039 | 74 | 152 | 0.0 | 0.0 | 0.00 | 0.75 | 1.20 | 90 | 1014.9 |
| 20260906213936 | 74 | 152 | 0.0 | 0.0 | 0.00 | 0.75 | 1.20 | 90 | 1015.0 |
| 20260906213830 | 74 | 152 | 0.0 | 0.0 | 0.00 | 0.75 | 1.20 | 90 | 1015.0 |
| 20260906213731 | 74 | 152 | 0.0 | 0.0 | 0.00 | 0.75 | 1.20 | 90 | 1015.0 |
| 20260906213631 | 74 | 151 | 0.0 | 0.0 | 0.00 | 0.75 | 1.20 | 90 | 1015.0 |
| 20260906213527 | 74 | 150 | 0.0 | 0.0 | 0.00 | 0.75 | 1.20 | 90 | 1015.1 |
| 20260906213426 | 74 | 150 | 0.0 | 0.0 | 0.00 | 0.75 | 1.20 | 91 | 1015.1 |
| 20260906213326 | 74 | 151 | 0.0 | 0.0 | 0.00 | 0.75 | 1.20 | 91 | 1015.1 |
| 20260906213224 | 74 | 150 | 0.0 | 0.0 | 0.00 | 0.75 | 1.20 | 91 | 1015.1 |
| 20260906213123 | 74 | 150 | 0.0 | 0.0 | 0.00 | 0.75 | 1.20 | 91 | 1015.3 |
| 20260906213022 | 74 | 147 | 0.0 | 0.0 | 0.00 | 0.75 | 1.20 | 91 | 1015.3 |
| 20260906212920 | 74 | 147 | 0.0 | 0.0 | 0.00 | 0.75 | 1.20 | 91 | 1015.3 |
| 20260906212820 | 74 | 147 | 0.0 | 0.0 | 0.00 | 0.75 | 1.20 | 91 | 1015.3 |
| 20260906212718 | 74 | 147 | 0.0 | 0.0 | 0.00 | 0.75 | 1.20 | 91 | 1015.3 |
| 20260906212616 | 74 | 147 | 0.0 | 0.0 | 0.00 | 0.75 | 1.20 | 91 | 1015.1 |
| 20260906212516 | 74 | 147 | 0.0 | 0.0 | 0.00 | 0.75 | 1.20 | 91 | 1015.3 |
| 20260906212414 | 74 | 147 | 0.0 | 0.0 | 0.00 | 0.75 | 1.20 | 91 | 1015.0 |
| 20260906212306 | 74 | 150 | 0.0 | 0.0 | 0.00 | 0.75 | 1.20 | 91 | 1015.0 |
| 20260906212203 | 74 | 150 | 0.0 | 0.0 | 0.00 | 0.75 | 1.20 | 91 | 1015.1 |
| 20260906212105 | 74 | 152 | 0.0 | 0.0 | 0.00 | 0.75 | 1.20 | 92 | 1015.0 |
| 20260906212004 | 74 | 162 | 0.0 | 0.0 | 0.00 | 0.75 | 1.20 | 92 | 1015.0 |
| 20260906211905 | 74 | 165 | 0.0 | 0.0 | 0.00 | 0.75 | 1.20 | 92 | 1015.1 |
| 20260906211802 | 74 | 164 | 0.0 | 0.0 | 0.00 | 0.75 | 1.20 | 92 | 1015.0 |
| 20260906211701 | 74 | 167 | 0.0 | 0.0 | 0.00 | 0.75 | 1.20 | 92 | 1015.0 |
| 20260906211601 | 74 | 170 | 0.0 | 0.0 | 0.00 | 0.75 | 1.20 | 92 | 1015.1 |
| 20260906211459 | 74 | 150 | 0.0 | 0.0 | 0.00 | 0.75 | 1.20 | 92 | 1015.3 |
| 20260906211359 | 74 | 146 | 0.0 | 0.0 | 0.00 | 0.75 | 1.20 | 92 | 1015.3 |
| 20260906211257 | 74 | 146 | 0.0 | 0.0 | 0.00 | 0.75 | 1.20 | 92 | 1015.4 |
| 20260906211156 | 74 | 144 | 0.0 | 0.0 | 0.00 | 0.75 | 1.20 | 92 | 1015.3 |
| 20260906211056 | 74 | 144 | 0.0 | 0.0 | 0.00 | 0.75 | 1.20 | 92 | 1015.3 |
| 20260906210954 | 74 | 128 | 0.0 | 0.0 | 0.01 | 0.75 | 1.20 | 92 | 1015.3 |
| 20260906210852 | 74 | 128 | 0.0 | 0.0 | 0.01 | 0.75 | 1.20 | 92 | 1015.3 |
| 20260906210746 | 74 | 127 | 0.0 | 0.0 | 0.01 | 0.75 | 1.20 | 92 | 1015.1 |
| 20260906210646 | 74 | 128 | 0.0 | 0.0 | 0.02 | 0.75 | 1.20 | 92 | 1015.3 |
| 20260906210546 | 74 | 128 | 0.0 | 0.0 | 0.02 | 0.75 | 1.20 | 91 | 1015.1 |
| 20260906210445 | 74 | 128 | 0.0 | 0.0 | 0.03 | 0.75 | 1.20 | 91 | 1015.1 |
| 20260906210342 | 74 | 128 | 0.0 | 0.0 | 0.03 | 0.75 | 1.20 | 91 | 1015.0 |
| 20260906210243 | 74 | 128 | 0.0 | 0.0 | 0.03 | 0.75 | 1.20 | 91 | 1015.0 |
| 20260906210141 | 74 | 126 | 0.0 | 0.0 | 0.03 | 0.75 | 1.20 | 91 | 1015.0 |
| 20260906210038 | 74 | 126 | 0.0 | 0.0 | 0.03 | 0.75 | 1.20 | 91 | 1015.1 |
| 20260906205939 | 74 | 126 | 0.0 | 0.0 | 0.03 | 0.75 | 1.20 | 91 | 1015.0 |
| 20260906205836 | 74 | 126 | 0.0 | 0.0 | 0.03 | 0.75 | 1.20 | 91 | 1015.1 |
| 20260906205732 | 74 | 126 | 0.0 | 0.0 | 0.03 | 0.75 | 1.20 | 91 | 1015.3 |
| 20260906205631 | 74 | 126 | 0.0 | 0.0 | 0.03 | 0.75 | 1.20 | 91 | 1015.3 |
| 20260906205530 | 74 | 126 | 0.0 | 0.0 | 0.03 | 0.75 | 1.20 | 91 | 1015.3 |
| 20260906205431 | 74 | 126 | 0.0 | 0.0 | 0.03 | 0.75 | 1.20 | 91 | 1015.3 |
| 20260906205331 | 74 | 78 | 0.0 | 0.0 | 0.03 | 0.75 | 1.20 | 91 | 1015.3 |
| 20260906205227 | 74 | 78 | 0.0 | 0.0 | 0.03 | 0.75 | 1.20 | 92 | 1015.3 |
| 20260906205123 | 74 | 78 | 0.0 | 0.0 | 0.03 | 0.75 | 1.20 | 92 | 1015.3 |
| 20260906205023 | 74 | 65 | 0.0 | 0.0 | 0.03 | 0.75 | 1.20 | 91 | 1015.1 |
| 20260906204922 | 74 | 65 | 0.0 | 0.0 | 0.03 | 0.75 | 1.20 | 91 | 1015.3 |
| 20260906204820 | 74 | 65 | 0.0 | 0.0 | 0.03 | 0.75 | 1.20 | 91 | 1015.3 |
| 20260906204720 | 74 | 65 | 0.0 | 0.0 | 0.03 | 0.75 | 1.20 | 91 | 1015.1 |
| 20260906204617 | 74 | 65 | 0.0 | 0.0 | 0.03 | 0.75 | 1.20 | 91 | 1015.3 |
| 20260906204517 | 74 | 65 | 0.0 | 0.0 | 0.03 | 0.75 | 1.20 | 91 | 1015.1 |
| 20260906204417 | 74 | 65 | 0.0 | 0.0 | 0.03 | 0.75 | 1.20 | 91 | 1015.1 |
| 20260906204314 | 74 | 65 | 0.0 | 0.0 | 0.03 | 0.75 | 1.20 | 91 | 1015.0 |
| 20260906204211 | 74 | 65 | 0.0 | 0.0 | 0.03 | 0.75 | 1.20 | 91 | 1015.0 |
| 20260906204111 | 74 | 65 | 0.0 | 0.0 | 0.03 | 0.75 | 1.20 | 91 | 1014.9 |
| 20260906204010 | 74 | 12 | 0.0 | 0.0 | 0.03 | 0.75 | 1.20 | 91 | 1014.8 |
| 20260906203911 | 74 | 12 | 0.0 | 0.0 | 0.03 | 0.75 | 1.20 | 91 | 1014.8 |
| 20260906203809 | 74 | 12 | 0.0 | 0.0 | 0.03 | 0.75 | 1.20 | 92 | 1014.8 |
| 20260906203658 | 74 | 26 | 0.0 | 0.0 | 0.03 | 0.75 | 1.20 | 92 | 1014.9 |
| 20260906203558 | 74 | 46 | 0.0 | 0.0 | 0.03 | 0.75 | 1.20 | 92 | 1014.9 |
| 20260906203458 | 74 | 46 | 0.0 | 0.0 | 0.03 | 0.75 | 1.20 | 92 | 1014.9 |
| 20260906203359 | 74 | 105 | 0.0 | 0.0 | 0.03 | 0.75 | 1.20 | 92 | 1014.9 |
| 20260906203259 | 74 | 107 | 0.0 | 0.0 | 0.03 | 0.75 | 1.20 | 92 | 1014.8 |
| 20260906203159 | 74 | 111 | 0.0 | 0.0 | 0.03 | 0.75 | 1.20 | 92 | 1014.9 |
| 20260906203055 | 74 | 121 | 0.0 | 0.0 | 0.03 | 0.75 | 1.20 | 92 | 1014.8 |
| 20260906202957 | 73 | 126 | 0.0 | 0.0 | 0.03 | 0.75 | 1.20 | 92 | 1014.8 |
| 20260906202854 | 74 | 126 | 0.0 | 0.0 | 0.03 | 0.75 | 1.20 | 92 | 1014.8 |
| 20260906202753 | 73 | 146 | 0.0 | 0.0 | 0.03 | 0.75 | 1.20 | 93 | 1014.8 |
| 20260906202648 | 73 | 88 | 0.0 | 0.0 | 0.03 | 0.75 | 1.20 | 92 | 1014.8 |
| 20260906202548 | 73 | 86 | 0.0 | 0.0 | 0.03 | 0.75 | 1.20 | 92 | 1014.8 |
| 20260906202448 | 73 | 85 | 0.0 | 0.0 | 0.03 | 0.75 | 1.20 | 92 | 1014.8 |
| 20260906202349 | 73 | 85 | 0.0 | 0.0 | 0.03 | 0.75 | 1.20 | 92 | 1014.7 |
| 20260906202246 | 73 | 84 | 0.0 | 0.0 | 0.03 | 0.75 | 1.20 | 92 | 1014.7 |
| 20260906202140 | 74 | 82 | 0.0 | 0.0 | 0.03 | 0.75 | 1.20 | 93 | 1014.7 |
| 20260906202040 | 74 | 101 | 0.0 | 0.0 | 0.03 | 0.75 | 1.20 | 93 | 1014.7 |
| 20260906201940 | 74 | 80 | 0.0 | 0.0 | 0.03 | 0.75 | 1.20 | 93 | 1014.7 |
| 20260906201839 | 73 | 111 | 0.0 | 0.0 | 0.03 | 0.75 | 1.20 | 93 | 1014.8 |
| 20260906201737 | 73 | 111 | 0.0 | 0.0 | 0.03 | 0.75 | 1.20 | 93 | 1014.8 |
| 20260906201633 | 73 | 109 | 0.0 | 0.0 | 0.03 | 0.75 | 1.20 | 93 | 1014.7 |
| 20260906201531 | 73 | 106 | 0.0 | 0.0 | 0.03 | 0.75 | 1.20 | 93 | 1014.8 |
| 20260906201431 | 73 | 88 | 0.0 | 0.0 | 0.03 | 0.75 | 1.20 | 93 | 1014.8 |
| 20260906201329 | 73 | 85 | 0.0 | 0.0 | 0.03 | 0.75 | 1.20 | 93 | 1014.7 |
| 20260906201231 | 73 | 115 | 0.0 | 0.0 | 0.03 | 0.75 | 1.20 | 93 | 1014.8 |
| 20260906201129 | 73 | 150 | 0.0 | 0.0 | 0.03 | 0.75 | 1.20 | 92 | 1014.8 |
| 20260906201028 | 73 | 153 | 0.0 | 0.0 | 0.02 | 0.74 | 1.20 | 92 | 1014.8 |
| 20260906200927 | 73 | 163 | 0.0 | 0.0 | 0.02 | 0.74 | 1.19 | 92 | 1015.0 |
| 20260906200827 | 73 | 171 | 0.0 | 0.0 | 0.02 | 0.74 | 1.19 | 92 | 1015.1 |
| 20260906200725 | 73 | 263 | 0.0 | 0.0 | 0.02 | 0.74 | 1.19 | 92 | 1015.3 |
| 20260906200617 | 73 | 268 | 0.0 | 0.0 | 0.01 | 0.73 | 1.19 | 92 | 1015.3 |
| 20260906200516 | 73 | 298 | 0.0 | 0.0 | 0.00 | 0.72 | 1.18 | 92 | 1015.4 |
| 20260906200415 | 73 | 298 | 0.0 | 0.0 | 0.00 | 0.72 | 1.17 | 92 | 1015.5 |
| 20260906200317 | 73 | 298 | 0.0 | 0.0 | 0.00 | 0.72 | 1.17 | 92 | 1015.5 |
| 20260906200215 | 73 | 290 | 0.0 | 0.0 | 0.00 | 0.72 | 1.17 | 92 | 1015.5 |
| 20260906200108 | 73 | 284 | 0.0 | 0.0 | 0.00 | 0.72 | 1.17 | 92 | 1015.5 |
| 20260906200007 | 73 | 253 | 0.0 | 0.0 | 0.00 | 0.72 | 1.17 | 92 | 1015.5 |
| 20260906195909 | 73 | 253 | 0.0 | 0.0 | 0.00 | 0.72 | 1.17 | 91 | 1015.5 |
| 20260906195808 | 73 | 253 | 0.0 | 0.0 | 0.00 | 0.72 | 1.17 | 92 | 1015.5 |
| 20260906195709 | 73 | 200 | 0.0 | 0.0 | 0.00 | 0.72 | 1.17 | 92 | 1015.4 |
| 20260906195605 | 73 | 173 | 0.0 | 0.0 | 0.00 | 0.72 | 1.17 | 92 | 1015.4 |
| 20260906195502 | 73 | 146 | 0.0 | 0.0 | 0.00 | 0.72 | 1.17 | 92 | 1015.3 |
| 20260906195401 | 73 | 146 | 0.0 | 0.0 | 0.00 | 0.72 | 1.17 | 92 | 1015.3 |
| 20260906195306 | 73 | 146 | 0.0 | 0.0 | 0.00 | 0.72 | 1.17 | 92 | 1015.1 |
| 20260906195203 | 73 | 146 | 0.0 | 0.0 | 0.00 | 0.72 | 1.17 | 92 | 1015.4 |
| 20260906195053 | 73 | 146 | 0.0 | 0.0 | 0.00 | 0.72 | 1.17 | 92 | 1015.5 |
| 20260906194955 | 73 | 148 | 0.0 | 0.0 | 0.00 | 0.72 | 1.17 | 92 | 1015.4 |
| 20260906194854 | 73 | 150 | 0.0 | 0.0 | 0.00 | 0.72 | 1.17 | 92 | 1015.6 |
| 20260906194754 | 73 | 157 | 0.0 | 0.0 | 0.00 | 0.72 | 1.17 | 92 | 1015.6 |
| 20260906194652 | 73 | 156 | 0.0 | 0.0 | 0.00 | 0.72 | 1.17 | 92 | 1015.6 |
| 20260906194553 | 73 | 155 | 0.0 | 0.0 | 0.00 | 0.72 | 1.17 | 92 | 1015.7 |
| 20260906194450 | 73 | 153 | 0.0 | 0.0 | 0.00 | 0.72 | 1.17 | 92 | 1015.7 |
| 20260906194350 | 73 | 153 | 0.0 | 0.0 | 0.00 | 0.72 | 1.17 | 92 | 1015.7 |
| 20260906194249 | 73 | 188 | 0.0 | 0.0 | 0.00 | 0.72 | 1.17 | 92 | 1015.7 |
| 20260906194147 | 73 | 188 | 0.0 | 0.0 | 0.00 | 0.72 | 1.17 | 92 | 1015.7 |
| 20260906194042 | 73 | 182 | 0.0 | 0.0 | 0.00 | 0.72 | 1.17 | 92 | 1015.6 |
| 20260906193942 | 73 | 204 | 0.0 | 0.0 | 0.00 | 0.72 | 1.17 | 92 | 1015.6 |
| 20260906193843 | 73 | 209 | 0.0 | 0.0 | 0.00 | 0.72 | 1.17 | 92 | 1015.6 |
| 20260906193743 | 73 | 179 | 0.0 | 0.0 | 0.00 | 0.72 | 1.17 | 92 | 1015.6 |
| 20260906193640 | 73 | 179 | 0.0 | 0.0 | 0.00 | 0.72 | 1.17 | 92 | 1015.6 |
| 20260906193532 | 73 | 179 | 0.0 | 0.0 | 0.00 | 0.72 | 1.17 | 92 | 1015.6 |
| 20260906193430 | 73 | 155 | 0.0 | 0.0 | 0.00 | 0.72 | 1.17 | 92 | 1015.6 |
| 20260906193330 | 73 | 155 | 0.0 | 0.0 | 0.00 | 0.72 | 1.17 | 92 | 1015.6 |
| 20260906193229 | 73 | 186 | 0.0 | 0.0 | 0.00 | 0.72 | 1.17 | 92 | 1015.6 |
| 20260906193131 | 73 | 122 | 0.0 | 0.0 | 0.00 | 0.72 | 1.17 | 92 | 1015.6 |
| 20260906193027 | 73 | 122 | 0.0 | 0.0 | 0.00 | 0.72 | 1.17 | 91 | 1015.6 |
| 20260906192928 | 73 | 121 | 0.0 | 0.0 | 0.00 | 0.72 | 1.17 | 92 | 1015.6 |
| 20260906192826 | 73 | 153 | 0.0 | 0.0 | 0.00 | 0.72 | 1.17 | 92 | 1015.6 |
| 20260906192727 | 73 | 165 | 0.0 | 0.0 | 0.00 | 0.72 | 1.17 | 91 | 1015.5 |
| 20260906192625 | 73 | 115 | 0.0 | 0.0 | 0.00 | 0.72 | 1.17 | 91 | 1015.5 |
| 20260906192526 | 73 | 138 | 0.0 | 0.0 | 0.00 | 0.72 | 1.17 | 92 | 1015.4 |
| 20260906192426 | 73 | 121 | 0.0 | 0.0 | 0.00 | 0.72 | 1.17 | 92 | 1015.3 |
| 20260906192325 | 73 | 130 | 0.0 | 0.0 | 0.00 | 0.72 | 1.17 | 92 | 1015.4 |
| 20260906192224 | 73 | 128 | 0.0 | 0.0 | 0.00 | 0.72 | 1.17 | 91 | 1015.0 |
| 20260906192125 | 73 | 134 | 0.0 | 0.0 | 0.00 | 0.72 | 1.17 | 91 | 1015.0 |
| 20260906192023 | 73 | 92 | 0.0 | 0.0 | 0.00 | 0.72 | 1.17 | 91 | 1015.0 |
| 20260906191919 | 73 | 123 | 0.0 | 0.0 | 0.00 | 0.72 | 1.17 | 91 | 1015.0 |
| 20260906191819 | 73 | 159 | 0.0 | 0.0 | 0.00 | 0.72 | 1.17 | 91 | 1014.9 |
| 20260906191720 | 73 | 106 | 0.0 | 0.0 | 0.00 | 0.72 | 1.17 | 91 | 1014.9 |
| 20260906191620 | 73 | 101 | 0.0 | 0.0 | 0.00 | 0.72 | 1.17 | 91 | 1014.8 |
| 20260906191521 | 73 | 101 | 0.0 | 0.0 | 0.00 | 0.72 | 1.17 | 91 | 1015.0 |
| 20260906191417 | 73 | 82 | 0.0 | 0.0 | 0.00 | 0.72 | 1.17 | 91 | 1014.8 |
| 20260906191318 | 73 | 109 | 0.0 | 0.0 | 0.00 | 0.72 | 1.17 | 91 | 1014.8 |
| 20260906191217 | 73 | 124 | 0.0 | 0.0 | 0.00 | 0.72 | 1.17 | 91 | 1014.8 |
| 20260906191117 | 73 | 113 | 0.0 | 0.0 | 0.00 | 0.72 | 1.17 | 91 | 1014.8 |
| 20260906191014 | 73 | 109 | 0.0 | 0.0 | 0.00 | 0.72 | 1.17 | 91 | 1014.8 |
| 20260906190911 | 73 | 108 | 0.0 | 0.0 | 0.00 | 0.72 | 1.17 | 91 | 1014.8 |
| 20260906190811 | 73 | 119 | 0.0 | 0.0 | 0.00 | 0.72 | 1.17 | 91 | 1014.8 |
| 20260906190712 | 73 | 111 | 0.0 | 0.0 | 0.00 | 0.72 | 1.17 | 91 | 1014.7 |
| 20260906190612 | 73 | 106 | 0.0 | 0.0 | 0.00 | 0.72 | 1.17 | 91 | 1014.8 |
| 20260906190513 | 73 | 119 | 0.0 | 0.0 | 0.00 | 0.72 | 1.17 | 91 | 1014.9 |
| 20260906190411 | 73 | 106 | 0.0 | 0.0 | 0.00 | 0.72 | 1.17 | 90 | 1015.1 |
| 20260906190307 | 73 | 100 | 0.0 | 0.0 | 0.00 | 0.72 | 1.17 | 90 | 1015.0 |
| 20260906190207 | 73 | 101 | 0.0 | 0.0 | 0.00 | 0.72 | 1.17 | 90 | 1015.0 |
| 20260906190106 | 73 | 111 | 0.0 | 0.0 | 0.00 | 0.72 | 1.17 | 90 | 1015.1 |
| 20260906190006 | 73 | 102 | 0.0 | 0.0 | 0.00 | 0.72 | 1.17 | 90 | 1015.1 |
| 20260906185905 | 73 | 126 | 0.0 | 0.0 | 0.00 | 0.72 | 1.17 | 90 | 1015.3 |
| 20260906185800 | 73 | 117 | 0.0 | 0.0 | 0.00 | 0.72 | 1.17 | 90 | 1015.3 |
| 20260906185700 | 73 | 89 | 0.0 | 0.0 | 0.00 | 0.72 | 1.17 | 90 | 1015.3 |
| 20260906185559 | 73 | 115 | 0.0 | 0.0 | 0.00 | 0.72 | 1.17 | 90 | 1015.4 |
| 20260906185501 | 73 | 96 | 0.0 | 0.0 | 0.00 | 0.72 | 1.17 | 90 | 1015.4 |
| 20260906185359 | 73 | 93 | 0.0 | 0.0 | 0.00 | 0.72 | 1.17 | 90 | 1015.4 |
| 20260906185300 | 73 | 92 | 0.0 | 0.0 | 0.00 | 0.72 | 1.17 | 90 | 1015.5 |
| 20260906185159 | 73 | 93 | 0.0 | 0.0 | 0.00 | 0.72 | 1.17 | 90 | 1015.4 |
| 20260906185058 | 73 | 90 | 0.0 | 0.0 | 0.00 | 0.72 | 1.17 | 90 | 1015.4 |
| 20260906184957 | 73 | 103 | 0.0 | 0.0 | 0.00 | 0.72 | 1.17 | 89 | 1015.5 |
| 20260906184858 | 73 | 101 | 0.0 | 0.0 | 0.00 | 0.72 | 1.17 | 89 | 1015.5 |
| 20260906184755 | 73 | 91 | 0.0 | 0.0 | 0.00 | 0.72 | 1.17 | 89 | 1015.5 |
| 20260906184656 | 73 | 94 | 0.0 | 0.0 | 0.00 | 0.72 | 1.17 | 89 | 1015.5 |
| 20260906184556 | 73 | 96 | 0.0 | 0.0 | 0.00 | 0.72 | 1.17 | 89 | 1015.5 |
| 20260906184456 | 74 | 97 | 0.0 | 0.0 | 0.00 | 0.72 | 1.17 | 89 | 1015.6 |
| 20260906184356 | 74 | 94 | 0.0 | 0.0 | 0.00 | 0.72 | 1.17 | 89 | 1015.6 |
| 20260906184254 | 74 | 97 | 0.0 | 0.0 | 0.00 | 0.72 | 1.17 | 89 | 1015.6 |
| 20260906184152 | 74 | 97 | 0.0 | 0.0 | 0.00 | 0.72 | 1.17 | 89 | 1015.7 |
| 20260906184051 | 74 | 90 | 0.0 | 0.0 | 0.00 | 0.72 | 1.17 | 89 | 1015.7 |
| 20260906183951 | 74 | 90 | 0.0 | 0.0 | 0.00 | 0.72 | 1.17 | 89 | 1015.8 |
| 20260906183850 | 74 | 89 | 0.0 | 0.0 | 0.00 | 0.72 | 1.17 | 89 | 1015.8 |
| 20260906183748 | 74 | 88 | 0.0 | 0.0 | 0.00 | 0.72 | 1.17 | 89 | 1015.9 |
| 20260906183646 | 74 | 94 | 0.0 | 0.0 | 0.00 | 0.72 | 1.17 | 89 | 1015.8 |
| 20260906183546 | 74 | 95 | 0.0 | 0.0 | 0.00 | 0.72 | 1.17 | 89 | 1015.9 |
| 20260906183446 | 74 | 94 | 0.0 | 0.0 | 0.00 | 0.72 | 1.17 | 89 | 1015.8 |
| 20260906183346 | 74 | 94 | 0.0 | 0.0 | 0.00 | 0.72 | 1.17 | 89 | 1015.9 |
| 20260906183245 | 74 | 84 | 0.0 | 0.0 | 0.00 | 0.72 | 1.17 | 89 | 1015.9 |
| 20260906183145 | 74 | 84 | 0.0 | 0.0 | 0.00 | 0.72 | 1.17 | 89 | 1015.9 |
| 20260906183043 | 74 | 101 | 0.0 | 0.0 | 0.00 | 0.72 | 1.17 | 90 | 1015.9 |
| 20260906182943 | 74 | 107 | 0.0 | 0.0 | 0.00 | 0.72 | 1.17 | 90 | 1016.0 |
| 20260906182841 | 74 | 101 | 0.0 | 0.0 | 0.00 | 0.72 | 1.17 | 90 | 1016.0 |
| 20260906182741 | 74 | 86 | 0.0 | 0.0 | 0.00 | 0.72 | 1.17 | 90 | 1016.0 |
| 20260906182639 | 74 | 106 | 0.0 | 0.0 | 0.00 | 0.72 | 1.17 | 90 | 1016.0 |
| 20260906182538 | 74 | 106 | 0.0 | 0.0 | 0.00 | 0.72 | 1.17 | 90 | 1015.9 |
| 20260906182436 | 74 | 104 | 0.0 | 0.0 | 0.00 | 0.72 | 1.17 | 90 | 1016.0 |
| 20260906182335 | 74 | 104 | 0.0 | 0.0 | 0.00 | 0.72 | 1.17 | 90 | 1016.0 |
| 20260906182235 | 74 | 104 | 0.0 | 0.0 | 0.00 | 0.72 | 1.17 | 89 | 1016.1 |
| 20260906182133 | 74 | 102 | 0.0 | 0.0 | 0.00 | 0.72 | 1.17 | 89 | 1015.9 |
| 20260906181946 | 74 | 102 | 0.0 | 0.0 | 0.00 | 0.72 | 1.17 | 89 | 1015.9 |
| 20260906181845 | 74 | 116 | 0.0 | 0.0 | 0.00 | 0.72 | 1.17 | 89 | 1016.1 |
| 20260906181746 | 74 | 117 | 0.0 | 0.0 | 0.00 | 0.72 | 1.17 | 90 | 1016.1 |
| 20260906181646 | 74 | 132 | 0.0 | 0.0 | 0.00 | 0.72 | 1.17 | 89 | 1016.1 |
| 20260906181541 | 74 | 132 | 0.0 | 0.0 | 0.00 | 0.72 | 1.17 | 89 | 1016.1 |
| 20260906181440 | 74 | 134 | 0.0 | 0.0 | 0.00 | 0.72 | 1.17 | 90 | 1016.1 |
| 20260906181339 | 74 | 132 | 0.0 | 0.0 | 0.00 | 0.72 | 1.17 | 90 | 1016.1 |
| 20260906181239 | 74 | 119 | 0.0 | 0.0 | 0.00 | 0.72 | 1.17 | 90 | 1016.1 |
| 20260906181140 | 74 | 137 | 0.0 | 0.0 | 0.00 | 0.72 | 1.17 | 90 | 1016.1 |
| 20260906181038 | 74 | 115 | 0.0 | 0.0 | 0.00 | 0.72 | 1.17 | 90 | 1016.1 |
| 20260906180938 | 74 | 115 | 0.0 | 0.0 | 0.00 | 0.72 | 1.17 | 90 | 1016.0 |
| 20260906180837 | 74 | 112 | 0.0 | 0.0 | 0.00 | 0.72 | 1.17 | 90 | 1016.0 |
| 20260906180737 | 74 | 109 | 0.0 | 0.0 | 0.00 | 0.72 | 1.17 | 90 | 1016.0 |
| 20260906180638 | 74 | 105 | 0.0 | 0.0 | 0.00 | 0.72 | 1.17 | 90 | 1016.0 |
| 20260906180538 | 74 | 119 | 0.0 | 0.0 | 0.00 | 0.72 | 1.17 | 90 | 1015.9 |
| 20260906180437 | 74 | 138 | 0.0 | 0.0 | 0.00 | 0.72 | 1.17 | 90 | 1015.8 |
| 20260906180339 | 74 | 103 | 0.0 | 0.0 | 0.00 | 0.72 | 1.17 | 90 | 1015.9 |
| 20260906180237 | 74 | 128 | 0.0 | 0.0 | 0.00 | 0.72 | 1.17 | 90 | 1015.8 |
| 20260906180138 | 74 | 87 | 0.0 | 0.0 | 0.00 | 0.72 | 1.17 | 90 | 1015.8 |
| 20260906180037 | 74 | 107 | 0.0 | 0.0 | 0.00 | 0.72 | 1.17 | 89 | 1015.7 |
| 20260906175939 | 74 | 113 | 0.0 | 0.0 | 0.00 | 0.72 | 1.17 | 89 | 1015.8 |
| 20260906175831 | 74 | 111 | 0.0 | 0.0 | 0.00 | 0.72 | 1.17 | 89 | 1015.7 |
| 20260906175731 | 74 | 115 | 0.0 | 0.0 | 0.00 | 0.72 | 1.17 | 89 | 1015.8 |
| 20260906175633 | 74 | 100 | 0.0 | 0.0 | 0.00 | 0.72 | 1.17 | 89 | 1015.8 |
| 20260906175531 | 74 | 110 | 0.0 | 0.0 | 0.00 | 0.72 | 1.17 | 89 | 1015.8 |
| 20260906175432 | 74 | 122 | 0.0 | 0.0 | 0.00 | 0.72 | 1.17 | 89 | 1015.8 |
| 20260906175332 | 74 | 114 | 0.0 | 0.0 | 0.00 | 0.72 | 1.17 | 89 | 1015.8 |
| 20260906175231 | 74 | 93 | 0.0 | 0.0 | 0.00 | 0.72 | 1.17 | 89 | 1015.8 |
| 20260906175133 | 74 | 94 | 0.0 | 0.0 | 0.00 | 0.72 | 1.17 | 89 | 1015.8 |
| 20260906175031 | 74 | 123 | 0.0 | 0.0 | 0.00 | 0.72 | 1.17 | 89 | 1015.7 |
| 20260906174931 | 74 | 120 | 0.0 | 0.0 | 0.00 | 0.72 | 1.17 | 89 | 1015.8 |
| 20260906174833 | 74 | 148 | 0.0 | 0.0 | 0.00 | 0.72 | 1.17 | 90 | 1015.7 |
| 20260906174731 | 74 | 113 | 0.0 | 0.0 | 0.00 | 0.72 | 1.17 | 90 | 1015.8 |
| 20260906174633 | 74 | 107 | 0.0 | 0.0 | 0.00 | 0.72 | 1.17 | 89 | 1015.8 |
| 20260906174531 | 74 | 119 | 0.0 | 0.0 | 0.00 | 0.72 | 1.17 | 90 | 1015.8 |
| 20260906174433 | 74 | 123 | 0.0 | 0.0 | 0.00 | 0.72 | 1.17 | 89 | 1015.7 |
| 20260906174331 | 74 | 83 | 0.0 | 0.0 | 0.00 | 0.72 | 1.17 | 89 | 1015.8 |
| 20260906174231 | 74 | 126 | 0.0 | 0.0 | 0.00 | 0.72 | 1.17 | 89 | 1015.8 |
| 20260906174133 | 74 | 114 | 0.0 | 0.0 | 0.00 | 0.72 | 1.17 | 89 | 1015.8 |
| 20260906174032 | 74 | 149 | 0.0 | 0.0 | 0.00 | 0.72 | 1.17 | 90 | 1015.9 |
| 20260906173927 | 74 | 128 | 0.0 | 0.0 | 0.00 | 0.72 | 1.17 | 90 | 1015.8 |
| 20260906173829 | 74 | 123 | 0.0 | 0.0 | 0.00 | 0.72 | 1.17 | 90 | 1015.9 |
| 20260906173729 | 74 | 119 | 0.0 | 0.0 | 0.00 | 0.72 | 1.17 | 90 | 1015.8 |
| 20260906173626 | 74 | 100 | 0.0 | 0.0 | 0.00 | 0.72 | 1.17 | 89 | 1015.9 |
| 20260906173525 | 74 | 108 | 0.0 | 0.0 | 0.00 | 0.72 | 1.17 | 89 | 1015.9 |
| 20260906173425 | 74 | 136 | 0.0 | 0.0 | 0.00 | 0.72 | 1.17 | 89 | 1015.9 |
| 20260906173326 | 74 | 98 | 0.0 | 0.0 | 0.00 | 0.72 | 1.17 | 89 | 1015.9 |
| 20260906173227 | 74 | 114 | 0.0 | 0.0 | 0.00 | 0.72 | 1.17 | 90 | 1016.0 |
| 20260906173126 | 74 | 117 | 0.0 | 0.0 | 0.00 | 0.72 | 1.17 | 90 | 1015.9 |
| 20260906173025 | 74 | 137 | 0.0 | 0.0 | 0.00 | 0.72 | 1.17 | 90 | 1016.0 |
| 20260906172926 | 74 | 112 | 0.0 | 0.0 | 0.00 | 0.72 | 1.17 | 90 | 1015.9 |
| 20260906172825 | 74 | 113 | 0.0 | 0.0 | 0.00 | 0.72 | 1.17 | 90 | 1016.0 |
| 20260906172726 | 74 | 140 | 0.0 | 0.0 | 0.00 | 0.72 | 1.17 | 90 | 1016.0 |
| 20260906172625 | 74 | 96 | 0.0 | 0.0 | 0.00 | 0.72 | 1.17 | 90 | 1016.0 |
| 20260906172525 | 74 | 144 | 0.0 | 0.0 | 0.00 | 0.72 | 1.17 | 90 | 1016.0 |
| 20260906172427 | 74 | 144 | 0.0 | 0.0 | 0.00 | 0.72 | 1.17 | 90 | 1016.0 |
| 20260906172325 | 74 | 119 | 0.0 | 0.0 | 0.00 | 0.72 | 1.17 | 90 | 1016.0 |
| 20260906172225 | 74 | 101 | 0.0 | 0.0 | 0.00 | 0.72 | 1.17 | 90 | 1016.0 |
| 20260906172126 | 74 | 45 | 0.0 | 0.0 | 0.00 | 0.72 | 1.17 | 90 | 1016.1 |
| 20260906172027 | 74 | 90 | 0.0 | 0.0 | 0.00 | 0.72 | 1.17 | 91 | 1016.1 |
| 20260906171925 | 74 | 117 | 0.0 | 0.0 | 0.00 | 0.72 | 1.17 | 91 | 1016.2 |
| 20260906171826 | 73 | 97 | 0.0 | 0.0 | 0.00 | 0.72 | 1.17 | 90 | 1016.1 |
| 20260906171726 | 73 | 113 | 0.0 | 0.0 | 0.00 | 0.72 | 1.17 | 90 | 1016.1 |
| 20260906171625 | 73 | 107 | 0.0 | 0.0 | 0.00 | 0.72 | 1.17 | 90 | 1016.0 |
| 20260906171526 | 73 | 100 | 0.0 | 0.0 | 0.00 | 0.72 | 1.17 | 90 | 1016.1 |
| 20260906171426 | 73 | 82 | 0.0 | 0.0 | 0.00 | 0.72 | 1.17 | 90 | 1016.0 |
| 20260906171322 | 73 | 118 | 0.0 | 0.0 | 0.00 | 0.72 | 1.17 | 90 | 1016.0 |
| 20260906171221 | 73 | 115 | 0.0 | 0.0 | 0.00 | 0.72 | 1.17 | 90 | 1016.0 |
| 20260906171121 | 73 | 72 | 0.0 | 0.0 | 0.00 | 0.72 | 1.17 | 91 | 1015.9 |
| 20260906171022 | 73 | 100 | 0.0 | 0.0 | 0.00 | 0.72 | 1.17 | 90 | 1015.9 |
| 20260906170921 | 73 | 102 | 0.0 | 0.0 | 0.00 | 0.72 | 1.17 | 90 | 1015.9 |
| 20260906170821 | 73 | 85 | 0.0 | 0.0 | 0.00 | 0.72 | 1.17 | 90 | 1015.8 |
| 20260906170723 | 74 | 87 | 0.0 | 0.0 | 0.00 | 0.72 | 1.17 | 90 | 1015.9 |
| 20260906170622 | 74 | 87 | 0.0 | 0.0 | 0.00 | 0.72 | 1.17 | 90 | 1015.9 |
| 20260906170522 | 74 | 109 | 0.0 | 0.0 | 0.00 | 0.72 | 1.17 | 91 | 1015.9 |
| 20260906170421 | 74 | 70 | 0.0 | 0.0 | 0.00 | 0.72 | 1.17 | 91 | 1015.8 |
| 20260906170322 | 74 | 76 | 0.0 | 0.0 | 0.00 | 0.72 | 1.17 | 91 | 1015.9 |
| 20260906170222 | 74 | 65 | 0.0 | 0.0 | 0.00 | 0.72 | 1.17 | 91 | 1016.0 |
| 20260906170121 | 74 | 91 | 0.0 | 0.0 | 0.00 | 0.72 | 1.17 | 92 | 1016.0 |
| 20260906170022 | 74 | 107 | 0.0 | 0.0 | 0.00 | 0.72 | 1.17 | 92 | 1015.9 |
| 20260906165921 | 73 | 90 | 0.0 | 0.0 | 0.00 | 0.72 | 1.17 | 92 | 1016.0 |
| 20260906165822 | 73 | 65 | 0.0 | 0.0 | 0.00 | 0.72 | 1.17 | 93 | 1016.0 |
| 20260906165721 | 73 | 97 | 0.0 | 0.0 | 0.00 | 0.72 | 1.17 | 92 | 1016.0 |
| 20260906165621 | 73 | 104 | 0.0 | 0.0 | 0.00 | 0.72 | 1.17 | 92 | 1015.9 |
| 20260906165521 | 73 | 118 | 0.0 | 0.0 | 0.00 | 0.72 | 1.17 | 92 | 1016.0 |
| 20260906165421 | 73 | 76 | 0.0 | 0.0 | 0.00 | 0.72 | 1.17 | 93 | 1016.0 |
| 20260906165321 | 73 | 64 | 0.0 | 0.0 | 0.00 | 0.72 | 1.17 | 93 | 1016.1 |
| 20260906165223 | 73 | 97 | 0.0 | 0.0 | 0.00 | 0.72 | 1.17 | 93 | 1016.2 |
| 20260906165122 | 73 | 39 | 0.0 | 0.0 | 0.00 | 0.72 | 1.17 | 93 | 1016.1 |
| 20260906165023 | 73 | 92 | 0.0 | 0.0 | 0.00 | 0.72 | 1.17 | 93 | 1016.2 |
| 20260906164922 | 73 | 80 | 0.0 | 0.0 | 0.00 | 0.72 | 1.17 | 94 | 1016.2 |
| 20260906164822 | 73 | 64 | 0.0 | 0.0 | 0.00 | 0.72 | 1.17 | 94 | 1016.3 |
| 20260906164714 | 73 | 36 | 0.0 | 0.0 | 0.00 | 0.72 | 1.17 | 95 | 1016.2 |
| 20260906164613 | 73 | 40 | 0.0 | 0.0 | 0.00 | 0.72 | 1.17 | 95 | 1016.2 |
| 20260906164513 | 72 | 99 | 0.0 | 0.0 | 0.00 | 0.72 | 1.17 | 95 | 1016.2 |
| 20260906164415 | 72 | 124 | 0.0 | 0.0 | 0.00 | 0.72 | 1.17 | 94 | 1016.2 |
| 20260906164314 | 72 | 52 | 0.0 | 0.0 | 0.00 | 0.72 | 1.17 | 94 | 1016.2 |
| 20260906164215 | 72 | 73 | 0.0 | 0.0 | 0.00 | 0.72 | 1.17 | 95 | 1016.3 |
| 20260906164113 | 72 | 90 | 0.0 | 0.0 | 0.00 | 0.72 | 1.17 | 95 | 1016.2 |
| 20260906164014 | 71 | 67 | 0.0 | 0.0 | 0.00 | 0.72 | 1.17 | 95 | 1016.3 |
| 20260906163915 | 71 | 105 | 0.0 | 0.0 | 0.00 | 0.72 | 1.17 | 95 | 1016.2 |
| 20260906163814 | 71 | 91 | 0.0 | 0.0 | 0.00 | 0.72 | 1.17 | 96 | 1016.2 |
| 20260906163715 | 71 | 81 | 0.0 | 0.0 | 0.00 | 0.72 | 1.17 | 96 | 1016.2 |
| 20260906163614 | 71 | 100 | 0.0 | 0.0 | 0.00 | 0.72 | 1.17 | 96 | 1016.2 |
| 20260906163514 | 71 | 110 | 0.0 | 0.0 | 0.00 | 0.72 | 1.17 | 96 | 1016.2 |
| 20260906163415 | 71 | 85 | 0.0 | 0.0 | 0.00 | 0.72 | 1.17 | 96 | 1016.3 |
| 20260906163314 | 71 | 94 | 0.0 | 0.0 | 0.00 | 0.72 | 1.17 | 96 | 1016.2 |
| 20260906163213 | 70 | 96 | 0.0 | 0.0 | 0.00 | 0.72 | 1.17 | 96 | 1016.2 |
| 20260906163113 | 70 | 86 | 0.0 | 0.0 | 0.00 | 0.72 | 1.17 | 96 | 1016.1 |
| 20260906163015 | 70 | 89 | 0.0 | 0.0 | 0.00 | 0.72 | 1.17 | 96 | 1016.1 |
| 20260906162913 | 70 | 85 | 0.0 | 0.0 | 0.00 | 0.72 | 1.17 | 96 | 1016.2 |
| 20260906162813 | 70 | 70 | 0.0 | 0.0 | 0.00 | 0.72 | 1.17 | 96 | 1016.2 |
| 20260906162714 | 70 | 72 | 0.0 | 0.0 | 0.00 | 0.72 | 1.17 | 96 | 1016.2 |
| 20260906162614 | 69 | 95 | 0.0 | 0.0 | 0.00 | 0.72 | 1.17 | 96 | 1016.1 |
| 20260906162514 | 69 | 32 | 0.0 | 0.0 | 0.00 | 0.72 | 1.17 | 96 | 1016.2 |
| 20260906162413 | 69 | 54 | 0.0 | 0.0 | 0.00 | 0.72 | 1.17 | 96 | 1016.1 |
| 20260906162315 | 69 | 46 | 0.0 | 0.0 | 0.00 | 0.72 | 1.17 | 96 | 1016.1 |
| 20260906162214 | 69 | 57 | 0.0 | 0.0 | 0.00 | 0.72 | 1.17 | 96 | 1016.1 |
| 20260906162113 | 69 | 52 | 0.0 | 0.0 | 0.00 | 0.72 | 1.17 | 96 | 1016.0 |
| 20260906162014 | 69 | 44 | 0.0 | 0.0 | 0.00 | 0.72 | 1.17 | 96 | 1016.0 |
| 20260906161913 | 69 | 49 | 0.0 | 0.0 | 0.00 | 0.72 | 1.17 | 96 | 1016.0 |
| 20260906161813 | 69 | 43 | 0.0 | 0.0 | 0.00 | 0.72 | 1.17 | 96 | 1016.1 |
| 20260906161714 | 69 | 32 | 0.0 | 0.0 | 0.00 | 0.72 | 1.17 | 96 | 1016.1 |
| 20260906161614 | 69 | 32 | 0.0 | 0.0 | 0.00 | 0.72 | 1.17 | 96 | 1016.1 |
| 20260906161514 | 69 | 29 | 0.0 | 0.0 | 0.00 | 0.72 | 1.17 | 97 | 1016.1 |
| 20260906161412 | 69 | 5 | 0.0 | 5.0 | 0.00 | 0.72 | 1.17 | 97 | 1016.1 |
| 20260906161309 | 69 | 26 | 0.0 | 5.0 | 0.00 | 0.72 | 1.17 | 96 | 1016.2 |
| 20260906161210 | 69 | 355 | 0.0 | 5.0 | 0.00 | 0.72 | 1.17 | 96 | 1016.2 |
| 20260906161109 | 69 | 40 | 0.0 | 5.0 | 0.00 | 0.72 | 1.17 | 96 | 1016.2 |
| 20260906161010 | 69 | 355 | 0.0 | 5.0 | 0.00 | 0.72 | 1.17 | 96 | 1016.4 |
| 20260906160910 | 69 | 333 | 1.0 | 5.0 | 0.00 | 0.72 | 1.17 | 96 | 1016.3 |
| 20260906160810 | 69 | 339 | 1.0 | 5.0 | 0.00 | 0.72 | 1.17 | 96 | 1016.3 |
| 20260906160711 | 69 | 10 | 1.0 | 5.0 | 0.00 | 0.72 | 1.17 | 96 | 1016.4 |
| 20260906160609 | 69 | 322 | 1.0 | 5.0 | 0.00 | 0.72 | 1.17 | 96 | 1016.4 |
| 20260906160510 | 69 | 319 | 2.0 | 5.0 | 0.00 | 0.72 | 1.17 | 96 | 1016.4 |
| 20260906160409 | 69 | 346 | 2.0 | 5.0 | 0.00 | 0.72 | 1.17 | 97 | 1016.4 |
| 20260906160309 | 69 | 344 | 2.0 | 5.0 | 0.00 | 0.72 | 1.17 | 97 | 1016.3 |
| 20260906160210 | 69 | 337 | 3.0 | 6.0 | 0.00 | 0.72 | 1.17 | 97 | 1016.4 |
| 20260906160110 | 69 | 335 | 3.0 | 6.0 | 0.00 | 0.72 | 1.17 | 97 | 1016.4 |
| 20260906160009 | 69 | 333 | 3.0 | 7.0 | 0.00 | 0.72 | 1.17 | 97 | 1016.4 |
| 20260906155912 | 69 | 326 | 3.0 | 7.0 | 0.00 | 0.72 | 1.17 | 97 | 1016.4 |
| 20260906155810 | 68 | 326 | 3.0 | 7.0 | 0.00 | 0.72 | 1.17 | 97 | 1016.5 |
| 20260906155709 | 68 | 323 | 3.0 | 7.0 | 0.00 | 0.72 | 1.17 | 97 | 1016.4 |
| 20260906155610 | 68 | 323 | 4.0 | 7.0 | 0.00 | 0.72 | 1.17 | 97 | 1016.5 |
| 20260906155510 | 68 | 312 | 3.0 | 7.0 | 0.00 | 0.72 | 1.17 | 96 | 1016.5 |
| 20260906155408 | 68 | 10 | 3.0 | 7.0 | 0.00 | 0.72 | 1.17 | 96 | 1016.4 |
| 20260906155311 | 68 | 5 | 3.0 | 7.0 | 0.00 | 0.72 | 1.17 | 96 | 1016.4 |
| 20260906155209 | 68 | 350 | 3.0 | 7.0 | 0.00 | 0.72 | 1.17 | 96 | 1016.4 |
| 20260906155110 | 68 | 26 | 3.0 | 7.0 | 0.00 | 0.72 | 1.17 | 96 | 1016.4 |
| 20260906155010 | 68 | 28 | 3.0 | 8.0 | 0.00 | 0.72 | 1.17 | 96 | 1016.4 |
| 20260906154910 | 68 | 25 | 3.0 | 8.0 | 0.00 | 0.72 | 1.17 | 96 | 1016.4 |
| 20260906154811 | 68 | 33 | 3.0 | 8.0 | 0.00 | 0.72 | 1.17 | 97 | 1016.4 |
| 20260906154709 | 68 | 355 | 3.0 | 8.0 | 0.00 | 0.72 | 1.17 | 97 | 1016.4 |
| 20260906154610 | 68 | 5 | 3.0 | 8.0 | 0.00 | 0.72 | 1.17 | 97 | 1016.4 |
| 20260906154510 | 68 | 11 | 3.0 | 8.0 | 0.01 | 0.72 | 1.17 | 97 | 1016.4 |
| 20260906154409 | 68 | 11 | 3.0 | 8.0 | 0.01 | 0.72 | 1.17 | 97 | 1016.4 |
| 20260906154312 | 68 | 11 | 3.0 | 8.0 | 0.01 | 0.72 | 1.17 | 97 | 1016.3 |
| 20260906154210 | 68 | 12 | 3.0 | 8.0 | 0.01 | 0.72 | 1.17 | 97 | 1016.3 |
| 20260906154110 | 68 | 308 | 3.0 | 8.0 | 0.01 | 0.72 | 1.17 | 97 | 1016.3 |
| 20260906154009 | 68 | 342 | 3.0 | 8.0 | 0.01 | 0.72 | 1.17 | 97 | 1016.3 |
| 20260906153909 | 68 | 344 | 3.0 | 6.0 | 0.01 | 0.72 | 1.17 | 97 | 1016.3 |
| 20260906153810 | 68 | 11 | 3.0 | 6.0 | 0.01 | 0.72 | 1.17 | 97 | 1016.4 |
| 20260906153707 | 68 | 13 | 3.0 | 6.0 | 0.01 | 0.72 | 1.17 | 97 | 1016.4 |
| 20260906153608 | 68 | 5 | 3.0 | 6.0 | 0.01 | 0.72 | 1.17 | 97 | 1016.3 |
| 20260906153507 | 68 | 347 | 2.0 | 6.0 | 0.01 | 0.72 | 1.17 | 97 | 1016.3 |
| 20260906153408 | 68 | 346 | 2.0 | 4.0 | 0.02 | 0.72 | 1.17 | 97 | 1016.3 |
| 20260906153307 | 68 | 17 | 2.0 | 4.0 | 0.02 | 0.72 | 1.17 | 97 | 1016.2 |
| 20260906153207 | 68 | 18 | 2.0 | 4.0 | 0.02 | 0.72 | 1.17 | 97 | 1016.2 |
| 20260906153107 | 68 | 49 | 2.0 | 4.0 | 0.02 | 0.72 | 1.17 | 97 | 1016.3 |
| 20260906153008 | 68 | 51 | 2.0 | 4.0 | 0.02 | 0.72 | 1.17 | 97 | 1016.1 |
| 20260906152905 | 68 | 55 | 2.0 | 4.0 | 0.03 | 0.72 | 1.17 | 97 | 1016.1 |
| 20260906152801 | 68 | 78 | 2.0 | 4.0 | 0.03 | 0.72 | 1.17 | 97 | 1016.0 |
| 20260906152701 | 68 | 78 | 2.0 | 4.0 | 0.03 | 0.72 | 1.17 | 97 | 1016.1 |
| 20260906152559 | 68 | 78 | 2.0 | 4.0 | 0.03 | 0.72 | 1.17 | 97 | 1016.1 |
| 20260906152457 | 68 | 78 | 2.0 | 4.0 | 0.03 | 0.72 | 1.17 | 97 | 1016.1 |
| 20260906152354 | 68 | 81 | 2.0 | 4.0 | 0.04 | 0.72 | 1.17 | 97 | 1016.1 |
| 20260906152255 | 68 | 81 | 2.0 | 4.0 | 0.04 | 0.72 | 1.17 | 97 | 1016.1 |
| 20260906152153 | 67 | 80 | 2.0 | 4.0 | 0.04 | 0.72 | 1.17 | 97 | 1016.1 |
| 20260906152052 | 68 | 95 | 2.0 | 4.0 | 0.04 | 0.72 | 1.17 | 97 | 1016.1 |
| 20260906151952 | 67 | 101 | 2.0 | 4.0 | 0.04 | 0.72 | 1.17 | 97 | 1016.2 |
| 20260906151847 | 67 | 150 | 2.0 | 3.0 | 0.04 | 0.72 | 1.17 | 97 | 1016.2 |
| 20260906151747 | 67 | 150 | 2.0 | 3.0 | 0.04 | 0.72 | 1.17 | 97 | 1016.2 |
| 20260906151646 | 67 | 150 | 2.0 | 3.0 | 0.04 | 0.72 | 1.17 | 97 | 1016.1 |
| 20260906151547 | 67 | 150 | 2.0 | 3.0 | 0.05 | 0.72 | 1.17 | 97 | 1016.2 |
| 20260906151445 | 67 | 150 | 2.0 | 3.0 | 0.07 | 0.72 | 1.17 | 97 | 1016.2 |
| 20260906151344 | 67 | 150 | 2.0 | 4.0 | 0.08 | 0.72 | 1.17 | 97 | 1016.1 |
| 20260906151243 | 67 | 150 | 2.0 | 4.0 | 0.11 | 0.72 | 1.17 | 97 | 1016.2 |
| 20260906151145 | 67 | 152 | 2.0 | 4.0 | 0.11 | 0.72 | 1.17 | 97 | 1016.2 |
| 20260906151042 | 67 | 152 | 2.0 | 4.0 | 0.13 | 0.72 | 1.17 | 97 | 1016.2 |
| 20260906150942 | 67 | 152 | 1.0 | 4.0 | 0.17 | 0.72 | 1.17 | 97 | 1016.2 |
| 20260906150840 | 67 | 152 | 1.0 | 4.0 | 0.20 | 0.72 | 1.17 | 97 | 1016.3 |
| 20260906150741 | 66 | 152 | 1.0 | 4.0 | 0.23 | 0.72 | 1.17 | 97 | 1016.4 |
| 20260906150639 | 66 | 152 | 1.0 | 4.0 | 0.26 | 0.72 | 1.17 | 96 | 1016.3 |
| 20260906150537 | 66 | 152 | 1.0 | 4.0 | 0.29 | 0.72 | 1.17 | 96 | 1016.4 |
| 20260906150437 | 66 | 153 | 1.0 | 4.0 | 0.36 | 0.72 | 1.17 | 96 | 1016.5 |
| 20260906150338 | 66 | 159 | 0.0 | 4.0 | 0.36 | 0.72 | 1.17 | 96 | 1016.5 |
| 20260906150237 | 66 | 224 | 0.0 | 2.0 | 0.39 | 0.72 | 1.17 | 96 | 1016.5 |
| 20260906150137 | 66 | 224 | 1.0 | 3.0 | 0.44 | 0.72 | 1.17 | 96 | 1016.4 |
| 20260906150035 | 66 | 224 | 1.0 | 3.0 | 0.51 | 0.72 | 1.17 | 96 | 1016.5 |
| 20260906145936 | 66 | 224 | 1.0 | 4.0 | 0.62 | 0.72 | 1.17 | 96 | 1016.4 |
| 20260906145836 | 66 | 224 | 1.0 | 4.0 | 0.72 | 0.72 | 1.17 | 96 | 1016.5 |
| 20260906145736 | 66 | 224 | 1.0 | 4.0 | 0.72 | 0.72 | 1.17 | 96 | 1016.4 |
| 20260906145634 | 66 | 224 | 1.0 | 4.0 | 0.72 | 0.72 | 1.17 | 96 | 1016.4 |
| 20260906145532 | 66 | 224 | 1.0 | 4.0 | 0.72 | 0.72 | 1.17 | 96 | 1016.4 |
| 20260906145433 | 66 | 224 | 2.0 | 4.0 | 0.72 | 0.72 | 1.17 | 96 | 1016.4 |
| 20260906145333 | 66 | 224 | 2.0 | 4.0 | 0.72 | 0.72 | 1.17 | 96 | 1016.4 |
| 20260906145234 | 66 | 224 | 2.0 | 4.0 | 0.72 | 0.72 | 1.17 | 96 | 1016.4 |
| 20260906145133 | 66 | 225 | 2.0 | 4.0 | 0.72 | 0.72 | 1.17 | 96 | 1016.4 |
| 20260906145033 | 66 | 222 | 2.0 | 4.0 | 0.72 | 0.72 | 1.17 | 96 | 1016.4 |
| 20260906144935 | 66 | 227 | 2.0 | 4.0 | 0.72 | 0.72 | 1.17 | 96 | 1016.4 |
| 20260906144833 | 66 | 221 | 2.0 | 5.0 | 0.72 | 0.72 | 1.17 | 96 | 1016.3 |
| 20260906144731 | 66 | 221 | 2.0 | 5.0 | 0.72 | 0.72 | 1.17 | 96 | 1016.4 |
| 20260906144631 | 66 | 221 | 2.0 | 5.0 | 0.72 | 0.72 | 1.17 | 96 | 1016.4 |
| 20260906144532 | 66 | 221 | 2.0 | 5.0 | 0.71 | 0.71 | 1.16 | 96 | 1016.4 |
| 20260906144431 | 66 | 219 | 2.0 | 5.0 | 0.71 | 0.71 | 1.16 | 96 | 1016.3 |
| 20260906144331 | 65 | 217 | 2.0 | 5.0 | 0.71 | 0.71 | 1.16 | 96 | 1016.3 |
| 20260906144231 | 65 | 189 | 2.0 | 5.0 | 0.71 | 0.71 | 1.16 | 96 | 1016.3 |
| 20260906144132 | 65 | 188 | 2.0 | 5.0 | 0.71 | 0.71 | 1.16 | 96 | 1016.2 |
| 20260906144030 | 65 | 187 | 2.0 | 5.0 | 0.71 | 0.71 | 1.16 | 96 | 1016.1 |
| 20260906143928 | 65 | 170 | 2.0 | 5.0 | 0.71 | 0.71 | 1.16 | 96 | 1016.1 |
| 20260906143824 | 65 | 109 | 2.0 | 4.0 | 0.71 | 0.71 | 1.16 | 96 | 1016.1 |
| 20260906143726 | 65 | 92 | 1.0 | 3.0 | 0.71 | 0.71 | 1.16 | 95 | 1016.1 |
| 20260906143625 | 65 | 92 | 1.0 | 3.0 | 0.71 | 0.71 | 1.16 | 95 | 1016.2 |
| 20260906143522 | 65 | 90 | 1.0 | 3.0 | 0.71 | 0.71 | 1.16 | 95 | 1016.2 |
| 20260906143419 | 65 | 20 | 1.0 | 3.0 | 0.70 | 0.70 | 1.15 | 95 | 1016.3 |
| 20260906143318 | 65 | 19 | 1.0 | 3.0 | 0.70 | 0.70 | 1.15 | 95 | 1016.3 |
| 20260906143217 | 65 | 19 | 1.0 | 3.0 | 0.70 | 0.70 | 1.15 | 95 | 1016.3 |
| 20260906143119 | 65 | 19 | 1.0 | 3.0 | 0.70 | 0.70 | 1.15 | 95 | 1016.4 |
| 20260906143015 | 65 | 18 | 1.0 | 3.0 | 0.70 | 0.70 | 1.15 | 95 | 1016.4 |
| 20260906142915 | 65 | 18 | 1.0 | 3.0 | 0.69 | 0.69 | 1.15 | 95 | 1016.5 |
| 20260906142813 | 65 | 18 | 1.0 | 3.0 | 0.69 | 0.69 | 1.14 | 95 | 1016.5 |
| 20260906142713 | 65 | 18 | 1.0 | 3.0 | 0.69 | 0.69 | 1.14 | 95 | 1016.4 |
| 20260906142611 | 65 | 18 | 1.0 | 3.0 | 0.69 | 0.69 | 1.14 | 95 | 1016.4 |
| 20260906142509 | 65 | 18 | 1.0 | 5.0 | 0.69 | 0.69 | 1.14 | 95 | 1016.4 |
| 20260906142410 | 65 | 17 | 1.0 | 5.0 | 0.68 | 0.68 | 1.13 | 95 | 1016.4 |
| 20260906142308 | 65 | 17 | 2.0 | 5.0 | 0.68 | 0.68 | 1.13 | 95 | 1016.4 |
| 20260906142207 | 65 | 34 | 2.0 | 5.0 | 0.68 | 0.68 | 1.13 | 95 | 1016.4 |
| 20260906142108 | 65 | 34 | 2.0 | 5.0 | 0.68 | 0.68 | 1.13 | 95 | 1016.4 |
| 20260906142007 | 66 | 39 | 2.0 | 5.0 | 0.68 | 0.68 | 1.13 | 95 | 1016.5 |
| 20260906141907 | 66 | 39 | 2.0 | 5.0 | 0.68 | 0.68 | 1.13 | 95 | 1016.5 |
| 20260906141807 | 66 | 46 | 2.0 | 5.0 | 0.68 | 0.68 | 1.13 | 95 | 1016.6 |
| 20260906141707 | 66 | 46 | 2.0 | 5.0 | 0.68 | 0.68 | 1.13 | 95 | 1016.6 |
| 20260906141607 | 66 | 46 | 2.0 | 5.0 | 0.68 | 0.68 | 1.13 | 95 | 1016.6 |
| 20260906141507 | 66 | 40 | 2.0 | 5.0 | 0.67 | 0.67 | 1.12 | 95 | 1016.6 |
| 20260906141407 | 66 | 14 | 1.0 | 5.0 | 0.65 | 0.65 | 1.11 | 95 | 1016.7 |
| 20260906141308 | 66 | 40 | 1.0 | 5.0 | 0.64 | 0.64 | 1.09 | 95 | 1016.6 |
| 20260906141203 | 66 | 60 | 1.0 | 5.0 | 0.61 | 0.61 | 1.08 | 95 | 1016.9 |
| 20260906141101 | 66 | 62 | 0.0 | 5.0 | 0.59 | 0.59 | 1.05 | 94 | 1016.7 |
| 20260906141002 | 66 | 38 | 0.0 | 3.0 | 0.55 | 0.55 | 1.02 | 94 | 1016.7 |
| 20260906140902 | 66 | 51 | 0.0 | 2.0 | 0.52 | 0.52 | 1.00 | 94 | 1016.9 |
| 20260906140801 | 66 | 33 | 0.0 | 1.0 | 0.49 | 0.49 | 0.96 | 94 | 1016.9 |
| 20260906140656 | 66 | 5 | 0.0 | 1.0 | 0.46 | 0.46 | 0.93 | 94 | 1016.9 |
| 20260906140556 | 66 | 51 | 0.0 | 1.0 | 0.43 | 0.43 | 0.90 | 94 | 1017.0 |
| 20260906140455 | 66 | 36 | 0.0 | 1.0 | 0.36 | 0.36 | 0.86 | 94 | 1017.1 |
| 20260906140355 | 67 | 317 | 0.0 | 1.0 | 0.36 | 0.36 | 0.81 | 94 | 1017.3 |
| 20260906140255 | 67 | 336 | 0.0 | 1.0 | 0.33 | 0.33 | 0.80 | 94 | 1017.3 |
| 20260906140152 | 67 | 290 | 0.0 | 0.0 | 0.28 | 0.28 | 0.77 | 94 | 1017.1 |
| 20260906140051 | 67 | 280 | 0.0 | 0.0 | 0.21 | 0.21 | 0.69 | 94 | 1017.1 |
| 20260906135951 | 67 | 328 | 0.0 | 0.0 | 0.10 | 0.10 | 0.61 | 94 | 1017.3 |
| 20260906135852 | 68 | 330 | 0.0 | 0.0 | 0.00 | 0.00 | 0.50 | 93 | 1017.4 |
| 20260906135750 | 68 | 325 | 0.0 | 0.0 | 0.00 | 0.00 | 0.10 | 94 | 1016.9 |
| 20260906135555 | 69 | 311 | 0.0 | 0.0 | 0.24 | 0.24 | 0.29 | 94 | 1017.2 |
| 20260906135456 | 69 | 258 | 0.0 | 0.0 | 0.17 | 0.17 | 0.22 | 94 | 1017.1 |
| 20260906135349 | 69 | 312 | 0.0 | 0.0 | 0.10 | 0.10 | 0.16 | 94 | 1017.0 |
| 20260906135250 | 69 | 344 | 0.0 | 0.0 | 0.10 | 0.10 | 0.11 | 94 | 1016.9 |
| 20260906135151 | 69 | 332 | 0.0 | 0.0 | 0.06 | 0.06 | 0.06 | 94 | 1016.9 |
| 20260906135050 | 69 | 286 | 0.0 | 0.0 | 0.02 | 0.02 | 0.03 | 94 | 1016.7 |
| 20260906134950 | 69 | 320 | 0.0 | 0.0 | 0.01 | 0.01 | 0.01 | 94 | 1016.7 |
| 20260906134847 | 70 | 323 | 0.0 | 0.0 | 0.00 | 0.00 | 0.00 | 94 | 1016.7 |
| 20260906134743 | 70 | 331 | 0.0 | 0.0 | 0.00 | 0.00 | 0.00 | 94 | 1016.7 |
| 20260906134644 | 70 | 328 | 0.0 | 0.0 | 0.00 | 0.00 | 0.00 | 94 | 1016.7 |
| 20260906134542 | 70 | 261 | 0.0 | 0.0 | 0.00 | 0.00 | 0.00 | 94 | 1016.7 |
| 20260906134444 | 70 | 305 | 0.0 | 0.0 | 0.00 | 0.00 | 0.00 | 94 | 1016.5 |
| 20260906134335 | 70 | 328 | 0.0 | 0.0 | 0.00 | 0.00 | 0.00 | 94 | 1016.3 |
| 20260906134236 | 70 | 63 | 0.0 | 0.0 | 0.00 | 0.00 | 0.00 | 94 | 1016.2 |
| 20260906134135 | 70 | 15 | 0.0 | 0.0 | 0.00 | 0.00 | 0.00 | 94 | 1015.9 |
| 20260906134035 | 70 | 94 | 0.0 | 0.0 | 0.00 | 0.00 | 0.00 | 94 | 1015.9 |
| 20260906133934 | 70 | 96 | 0.0 | 0.0 | 0.00 | 0.00 | 0.00 | 94 | 1015.8 |
| 20260906133830 | 70 | 134 | 0.0 | 0.0 | 0.00 | 0.00 | 0.00 | 94 | 1015.8 |
| 20260906133727 | 70 | 107 | 0.0 | 0.0 | 0.00 | 0.00 | 0.00 | 94 | 1015.8 |
| 20260906133627 | 70 | 95 | 0.0 | 0.0 | 0.00 | 0.00 | 0.00 | 94 | 1015.8 |
| 20260906133528 | 70 | 112 | 0.0 | 0.0 | 0.00 | 0.00 | 0.00 | 94 | 1015.8 |
| 20260906133425 | 70 | 96 | 0.0 | 0.0 | 0.00 | 0.00 | 0.00 | 94 | 1015.9 |
| 20260906133324 | 70 | 121 | 0.0 | 0.0 | 0.00 | 0.00 | 0.00 | 94 | 1015.9 |
| 20260906133223 | 70 | 139 | 0.0 | 0.0 | 0.00 | 0.00 | 0.00 | 94 | 1015.9 |
| 20260906133124 | 70 | 119 | 0.0 | 0.0 | 0.00 | 0.00 | 0.00 | 94 | 1015.8 |
| 20260906133021 | 70 | 104 | 0.0 | 0.0 | 0.00 | 0.00 | 0.00 | 94 | 1015.8 |
| 20260906132920 | 70 | 117 | 0.0 | 0.0 | 0.00 | 0.00 | 0.00 | 94 | 1015.8 |
| 20260906132810 | 70 | 92 | 0.0 | 0.0 | 0.00 | 0.00 | 0.00 | 94 | 1015.9 |
| 20260906132711 | 70 | 91 | 0.0 | 0.0 | 0.00 | 0.00 | 0.00 | 94 | 1015.9 |
| 20260906132611 | 70 | 116 | 0.0 | 0.0 | 0.00 | 0.00 | 0.00 | 94 | 1015.9 |
| 20260906132512 | 70 | 90 | 0.0 | 0.0 | 0.00 | 0.00 | 0.00 | 94 | 1016.0 |
| 20260906132409 | 70 | 115 | 0.0 | 0.0 | 0.00 | 0.00 | 0.00 | 94 | 1015.9 |
| 20260906132306 | 70 | 115 | 0.0 | 0.0 | 0.00 | 0.00 | 0.00 | 94 | 1015.9 |
| 20260906132203 | 70 | 139 | 0.0 | 0.0 | 0.00 | 0.00 | 0.00 | 94 | 1015.9 |
| 20260906132104 | 70 | 111 | 0.0 | 0.0 | 0.00 | 0.00 | 0.00 | 94 | 1015.8 |
| 20260906132003 | 70 | 95 | 0.0 | 0.0 | 0.00 | 0.00 | 0.00 | 94 | 1015.8 |
| 20260906131904 | 70 | 130 | 0.0 | 0.0 | 0.00 | 0.00 | 0.00 | 94 | 1015.9 |
| 20260906131800 | 70 | 144 | 0.0 | 0.0 | 0.00 | 0.00 | 0.00 | 94 | 1015.8 |
| 20260906131657 | 70 | 111 | 0.0 | 0.0 | 0.00 | 0.00 | 0.00 | 94 | 1015.7 |
| 20260906131557 | 70 | 129 | 0.0 | 0.0 | 0.00 | 0.00 | 0.00 | 94 | 1015.7 |
| 20260906131458 | 70 | 127 | 0.0 | 0.0 | 0.00 | 0.00 | 0.00 | 94 | 1015.8 |
| 20260906131356 | 70 | 108 | 0.0 | 0.0 | 0.00 | 0.00 | 0.00 | 94 | 1015.8 |
| 20260906131247 | 70 | 100 | 0.0 | 0.0 | 0.00 | 0.00 | 0.00 | 94 | 1015.8 |
| 20260906131147 | 70 | 114 | 0.0 | 0.0 | 0.00 | 0.00 | 0.00 | 94 | 1015.8 |
| 20260906131047 | 70 | 128 | 0.0 | 0.0 | 0.00 | 0.00 | 0.00 | 94 | 1015.8 |
| 20260906130948 | 70 | 104 | 0.0 | 0.0 | 0.00 | 0.00 | 0.00 | 94 | 1015.8 |
| 20260906130846 | 70 | 134 | 0.0 | 0.0 | 0.00 | 0.00 | 0.00 | 94 | 1015.8 |
| 20260906130741 | 70 | 138 | 0.0 | 0.0 | 0.00 | 0.00 | 0.00 | 94 | 1015.8 |
| 20260906130640 | 70 | 115 | 0.0 | 0.0 | 0.00 | 0.00 | 0.00 | 94 | 1015.8 |
| 20260906130540 | 70 | 142 | 0.0 | 0.0 | 0.00 | 0.00 | 0.00 | 94 | 1015.8 |
| 20260906130439 | 70 | 139 | 0.0 | 0.0 | 0.00 | 0.00 | 0.00 | 94 | 1015.7 |
| 20260906130339 | 70 | 147 | 0.0 | 0.0 | 0.00 | 0.00 | 0.00 | 94 | 1015.7 |
| 20260906130236 | 70 | 119 | 0.0 | 0.0 | 0.00 | 0.00 | 0.00 | 94 | 1015.8 |
| 20260906130135 | 70 | 136 | 0.0 | 0.0 | 0.00 | 0.00 | 0.00 | 94 | 1015.7 |
| 20260906130035 | 70 | 128 | 0.0 | 0.0 | 0.00 | 0.00 | 0.00 | 94 | 1015.8 |
| 20260906125935 | 70 | 139 | 0.0 | 0.0 | 0.00 | 0.00 | 0.00 | 94 | 1015.8 |
| 20260906125833 | 70 | 132 | 0.0 | 0.0 | 0.00 | 0.00 | 0.00 | 94 | 1015.8 |
| 20260906125724 | 70 | 142 | 0.0 | 0.0 | 0.00 | 0.00 | 0.00 | 94 | 1015.7 |
| 20260906125623 | 70 | 128 | 0.0 | 0.0 | 0.00 | 0.00 | 0.00 | 94 | 1015.8 |
| 20260906125524 | 70 | 131 | 0.0 | 0.0 | 0.00 | 0.00 | 0.00 | 94 | 1015.8 |
| 20260906125424 | 70 | 123 | 0.0 | 0.0 | 0.00 | 0.00 | 0.00 | 94 | 1015.8 |
| 20260906125324 | 70 | 107 | 0.0 | 0.0 | 0.00 | 0.00 | 0.00 | 94 | 1015.8 |
| 20260906125221 | 70 | 119 | 0.0 | 0.0 | 0.00 | 0.00 | 0.00 | 94 | 1015.8 |
| 20260906125122 | 70 | 109 | 0.0 | 0.0 | 0.00 | 0.00 | 0.00 | 94 | 1015.7 |
| 20260906125023 | 70 | 131 | 0.0 | 0.0 | 0.00 | 0.00 | 0.00 | 94 | 1015.8 |
| 20260906124920 | 70 | 142 | 0.0 | 0.0 | 0.00 | 0.00 | 0.00 | 94 | 1015.7 |
| 20260906124817 | 70 | 128 | 0.0 | 0.0 | 0.00 | 0.00 | 0.00 | 94 | 1015.8 |
| 20260906124714 | 70 | 94 | 0.0 | 0.0 | 0.00 | 0.00 | 0.00 | 94 | 1015.8 |
| 20260906124615 | 70 | 91 | 0.0 | 0.0 | 0.00 | 0.00 | 0.00 | 94 | 1015.8 |
| 20260906124513 | 70 | 107 | 0.0 | 0.0 | 0.00 | 0.00 | 0.00 | 94 | 1015.8 |
| 20260906124414 | 70 | 135 | 0.0 | 0.0 | 0.00 | 0.00 | 0.00 | 94 | 1015.8 |
| 20260906124311 | 70 | 117 | 0.0 | 0.0 | 0.00 | 0.00 | 0.00 | 94 | 1015.7 |
| 20260906124202 | 70 | 141 | 0.0 | 0.0 | 0.00 | 0.00 | 0.00 | 94 | 1015.7 |
| 20260906124101 | 70 | 142 | 0.0 | 0.0 | 0.00 | 0.00 | 0.00 | 94 | 1015.7 |
| 20260906124002 | 70 | 106 | 0.0 | 0.0 | 0.00 | 0.00 | 0.00 | 94 | 1015.7 |
| 20260906123901 | 70 | 120 | 0.0 | 0.0 | 0.00 | 0.00 | 0.00 | 94 | 1015.6 |
| 20260906123802 | 70 | 123 | 0.0 | 0.0 | 0.00 | 0.00 | 0.00 | 94 | 1015.6 |
| 20260906123659 | 70 | 125 | 0.0 | 0.0 | 0.00 | 0.00 | 0.00 | 94 | 1015.6 |
| 20260906123559 | 70 | 126 | 0.0 | 0.0 | 0.00 | 0.00 | 0.00 | 94 | 1015.6 |
| 20260906123458 | 70 | 143 | 0.0 | 0.0 | 0.00 | 0.00 | 0.00 | 94 | 1015.6 |
| 20260906123358 | 70 | 112 | 0.0 | 0.0 | 0.00 | 0.00 | 0.00 | 94 | 1015.6 |
| 20260906123256 | 70 | 112 | 0.0 | 0.0 | 0.00 | 0.00 | 0.00 | 94 | 1015.6 |
| 20260906123152 | 70 | 100 | 0.0 | 0.0 | 0.00 | 0.00 | 0.00 | 94 | 1015.5 |
| 20260906123049 | 70 | 161 | 0.0 | 0.0 | 0.00 | 0.00 | 0.00 | 94 | 1015.6 |
| 20260906122951 | 70 | 119 | 0.0 | 0.0 | 0.00 | 0.00 | 0.00 | 94 | 1015.7 |
| 20260906122849 | 70 | 115 | 0.0 | 0.0 | 0.00 | 0.00 | 0.00 | 94 | 1015.6 |
| 20260906122750 | 70 | 107 | 0.0 | 0.0 | 0.00 | 0.00 | 0.00 | 94 | 1015.7 |
| 20260906122639 | 70 | 109 | 0.0 | 0.0 | 0.00 | 0.00 | 0.00 | 93 | 1015.6 |
| 20260906122539 | 70 | 98 | 0.0 | 0.0 | 0.00 | 0.00 | 0.00 | 93 | 1015.7 |
| 20260906122440 | 70 | 78 | 0.0 | 0.0 | 0.00 | 0.00 | 0.00 | 93 | 1015.6 |
| 20260906122339 | 70 | 74 | 0.0 | 0.0 | 0.00 | 0.00 | 0.00 | 93 | 1015.7 |
| 20260906122240 | 70 | 97 | 0.0 | 0.0 | 0.00 | 0.00 | 0.00 | 93 | 1015.6 |
| 20260906122136 | 70 | 96 | 0.0 | 0.0 | 0.00 | 0.00 | 0.00 | 93 | 1015.7 |
| 20260906122033 | 70 | 86 | 0.0 | 0.0 | 0.00 | 0.00 | 0.00 | 93 | 1015.7 |
| 20260906121933 | 70 | 111 | 0.0 | 0.0 | 0.00 | 0.00 | 0.00 | 93 | 1015.7 |
| 20260906121833 | 70 | 120 | 0.0 | 0.0 | 0.00 | 0.00 | 0.00 | 93 | 1015.7 |
| 20260906121734 | 70 | 81 | 0.0 | 0.0 | 0.00 | 0.00 | 0.00 | 93 | 1015.6 |
| 20260906121630 | 70 | 107 | 0.0 | 0.0 | 0.00 | 0.00 | 0.00 | 93 | 1015.6 |
| 20260906121526 | 70 | 96 | 0.0 | 0.0 | 0.00 | 0.00 | 0.00 | 93 | 1015.6 |
| 20260906121429 | 70 | 103 | 0.0 | 0.0 | 0.00 | 0.00 | 0.00 | 93 | 1015.5 |
| 20260906121327 | 70 | 118 | 0.0 | 0.0 | 0.00 | 0.00 | 0.00 | 92 | 1015.6 |
| 20260906121227 | 70 | 92 | 0.0 | 0.0 | 0.00 | 0.00 | 0.00 | 92 | 1015.5 |
| 20260906121123 | 70 | 90 | 0.0 | 0.0 | 0.00 | 0.00 | 0.00 | 92 | 1015.6 |
| 20260906121021 | 70 | 80 | 0.0 | 0.0 | 0.00 | 0.00 | 0.00 | 92 | 1015.5 |
| 20260906120922 | 70 | 76 | 0.0 | 0.0 | 0.00 | 0.00 | 0.00 | 92 | 1015.5 |
| 20260906120819 | 70 | 84 | 0.0 | 0.0 | 0.00 | 0.00 | 0.00 | 92 | 1015.5 |
| 20260906120717 | 70 | 76 | 0.0 | 0.0 | 0.00 | 0.00 | 0.00 | 91 | 1015.5 |
| 20260906120615 | 70 | 70 | 0.0 | 0.0 | 0.00 | 0.00 | 0.00 | 91 | 1015.4 |
| 20260906120514 | 70 | 56 | 0.0 | 0.0 | 0.00 | 0.00 | 0.00 | 91 | 1015.5 |
| 20260906120413 | 70 | 70 | 0.0 | 0.0 | 0.00 | 0.00 | 0.00 | 91 | 1015.4 |
| 20260906120313 | 70 | 59 | 0.0 | 0.0 | 0.00 | 0.00 | 0.00 | 91 | 1015.4 |
| 20260906120212 | 70 | 87 | 0.0 | 0.0 | 0.00 | 0.00 | 0.00 | 91 | 1015.3 |
| 20260906120108 | 70 | 87 | 0.0 | 0.0 | 0.00 | 0.00 | 0.00 | 90 | 1015.3 |
| 20260906120011 | 70 | 88 | 0.0 | 0.0 | 0.00 | 0.00 | 0.00 | 90 | 1015.0 |
| 20260906115907 | 71 | 101 | 0.0 | 0.0 | 0.00 | 0.00 | 0.00 | 90 | 1015.0 |
| 20260906115808 | 71 | 122 | 0.0 | 0.0 | 0.00 | 0.00 | 0.00 | 90 | 1015.0 |
| 20260906115705 | 71 | 98 | 0.0 | 0.0 | 0.00 | 0.00 | 0.00 | 90 | 1015.0 |
| 20260906115559 | 71 | 116 | 0.0 | 0.0 | 0.00 | 0.00 | 0.00 | 90 | 1015.0 |
| 20260906115459 | 71 | 127 | 0.0 | 0.0 | 0.00 | 0.00 | 0.00 | 90 | 1015.0 |
| 20260906115358 | 71 | 89 | 0.0 | 0.0 | 0.00 | 0.00 | 0.00 | 90 | 1015.0 |
| 20260906115257 | 71 | 100 | 0.0 | 0.0 | 0.00 | 0.00 | 0.00 | 89 | 1014.9 |
| 20260906115156 | 71 | 98 | 0.0 | 0.0 | 0.00 | 0.00 | 0.00 | 89 | 1015.0 |
| 20260906115055 | 71 | 98 | 0.0 | 0.0 | 0.00 | 0.00 | 0.00 | 89 | 1015.0 |
| 20260906114954 | 71 | 99 | 0.0 | 0.0 | 0.00 | 0.00 | 0.00 | 89 | 1015.0 |
| 20260906114851 | 71 | 65 | 0.0 | 0.0 | 0.00 | 0.00 | 0.00 | 89 | 1015.0 |
| 20260906114752 | 71 | 76 | 0.0 | 0.0 | 0.00 | 0.00 | 0.00 | 89 | 1015.1 |
| 20260906114650 | 71 | 76 | 0.0 | 0.0 | 0.00 | 0.00 | 0.00 | 89 | 1015.0 |
| 20260906114549 | 71 | 76 | 0.0 | 0.0 | 0.00 | 0.00 | 0.00 | 89 | 1015.0 |
| 20260906114447 | 71 | 76 | 0.0 | 0.0 | 0.00 | 0.00 | 0.00 | 89 | 1015.0 |
| 20260906114344 | 71 | 76 | 0.0 | 0.0 | 0.00 | 0.00 | 0.00 | 88 | 1015.0 |
| 20260906114246 | 71 | 93 | 0.0 | 0.0 | 0.00 | 0.00 | 0.00 | 88 | 1015.0 |
| 20260906114143 | 71 | 93 | 0.0 | 0.0 | 0.00 | 0.00 | 0.00 | 88 | 1015.1 |
| 20260906114038 | 71 | 93 | 0.0 | 0.0 | 0.00 | 0.00 | 0.00 | 88 | 1014.9 |
| 20260906113938 | 72 | 93 | 0.0 | 0.0 | 0.00 | 0.00 | 0.00 | 88 | 1014.9 |
| 20260906113835 | 72 | 93 | 0.0 | 0.0 | 0.00 | 0.00 | 0.00 | 88 | 1014.9 |
| 20260906113736 | 72 | 98 | 0.0 | 0.0 | 0.00 | 0.00 | 0.00 | 88 | 1015.0 |
| 20260906113634 | 72 | 98 | 0.0 | 0.0 | 0.00 | 0.00 | 0.00 | 88 | 1014.9 |
| 20260906113534 | 72 | 98 | 0.0 | 0.0 | 0.00 | 0.00 | 0.00 | 88 | 1014.9 |
| 20260906113432 | 72 | 98 | 0.0 | 0.0 | 0.00 | 0.00 | 0.00 | 88 | 1014.9 |
| 20260906113328 | 71 | 98 | 0.0 | 0.0 | 0.00 | 0.00 | 0.00 | 88 | 1014.8 |
| 20260906113229 | 71 | 98 | 0.0 | 0.0 | 0.00 | 0.00 | 0.00 | 88 | 1014.9 |
| 20260906113128 | 72 | 98 | 0.0 | 0.0 | 0.00 | 0.00 | 0.00 | 88 | 1014.8 |
| 20260906113025 | 71 | 98 | 0.0 | 0.0 | 0.00 | 0.00 | 0.00 | 88 | 1014.8 |
| 20260906112926 | 72 | 98 | 0.0 | 0.0 | 0.00 | 0.00 | 0.00 | 88 | 1014.8 |
| 20260906112823 | 71 | 98 | 0.0 | 0.0 | 0.00 | 0.00 | 0.00 | 88 | 1014.8 |
| 20260906112724 | 71 | 98 | 0.0 | 0.0 | 0.00 | 0.00 | 0.00 | 88 | 1014.7 |
| 20260906112621 | 71 | 98 | 0.0 | 0.0 | 0.00 | 0.00 | 0.00 | 87 | 1014.8 |
| 20260906112514 | 71 | 97 | 0.0 | 0.0 | 0.00 | 0.00 | 0.00 | 87 | 1014.7 |
| 20260906112416 | 71 | 98 | 0.0 | 0.0 | 0.00 | 0.00 | 0.00 | 87 | 1014.7 |
| 20260906112315 | 71 | 98 | 0.0 | 0.0 | 0.00 | 0.00 | 0.00 | 87 | 1014.7 |
| 20260906112214 | 71 | 98 | 0.0 | 0.0 | 0.00 | 0.00 | 0.00 | 87 | 1014.8 |
| 20260906112112 | 71 | 98 | 0.0 | 0.0 | 0.00 | 0.00 | 0.00 | 87 | 1014.8 |
| 20260906112006 | 71 | 98 | 0.0 | 0.0 | 0.00 | 0.00 | 0.00 | 87 | 1014.7 |
| 20260906111905 | 71 | 98 | 0.0 | 0.0 | 0.00 | 0.00 | 0.00 | 87 | 1014.6 |
| 20260906111806 | 72 | 98 | 0.0 | 0.0 | 0.00 | 0.00 | 0.00 | 87 | 1014.6 |
| 20260906111705 | 71 | 98 | 0.0 | 0.0 | 0.00 | 0.00 | 0.00 | 87 | 1014.6 |
| 20260906111605 | 72 | 98 | 0.0 | 0.0 | 0.00 | 0.00 | 0.00 | 87 | 1014.6 |
| 20260906111501 | 71 | 98 | 0.0 | 0.0 | 0.00 | 0.00 | 0.00 | 87 | 1014.5 |
| 20260906111400 | 71 | 98 | 0.0 | 0.0 | 0.00 | 0.00 | 0.00 | 87 | 1014.6 |
| 20260906111301 | 72 | 98 | 0.0 | 0.0 | 0.00 | 0.00 | 0.00 | 87 | 1014.6 |
| 20260906111159 | 71 | 98 | 0.0 | 0.0 | 0.00 | 0.00 | 0.00 | 87 | 1014.6 |
| 20260906111059 | 72 | 97 | 0.0 | 0.0 | 0.00 | 0.00 | 0.00 | 87 | 1014.6 |
| 20260906110953 | 72 | 94 | 0.0 | 0.0 | 0.00 | 0.00 | 0.00 | 87 | 1014.6 |
| 20260906110853 | 72 | 71 | 0.0 | 0.0 | 0.00 | 0.00 | 0.00 | 87 | 1014.6 |
| 20260906110752 | 72 | 67 | 0.0 | 0.0 | 0.00 | 0.00 | 0.00 | 87 | 1014.6 |
| 20260906110651 | 72 | 13 | 0.0 | 0.0 | 0.00 | 0.00 | 0.00 | 87 | 1014.7 |
| 20260906110550 | 72 | 13 | 0.0 | 0.0 | 0.00 | 0.00 | 0.00 | 87 | 1014.6 |
| 20260906110449 | 72 | 13 | 0.0 | 0.0 | 0.00 | 0.00 | 0.00 | 87 | 1014.6 |
| 20260906110347 | 72 | 9 | 0.0 | 0.0 | 0.00 | 0.00 | 0.00 | 87 | 1014.6 |
| 20260906110246 | 72 | 9 | 0.0 | 0.0 | 0.00 | 0.00 | 0.00 | 86 | 1014.6 |
| 20260906110145 | 72 | 9 | 0.0 | 0.0 | 0.00 | 0.00 | 0.00 | 87 | 1014.6 |
| 20260906110044 | 72 | 9 | 0.0 | 0.0 | 0.00 | 0.00 | 0.00 | 87 | 1014.6 |
| 20260906105940 | 72 | 13 | 0.0 | 0.0 | 0.00 | 0.00 | 0.00 | 87 | 1014.6 |
| 20260906105836 | 72 | 19 | 0.0 | 0.0 | 0.00 | 0.00 | 0.00 | 87 | 1014.7 |
| 20260906105739 | 72 | 11 | 0.0 | 0.0 | 0.00 | 0.00 | 0.00 | 86 | 1014.6 |
| 20260906105638 | 72 | 25 | 0.0 | 0.0 | 0.00 | 0.00 | 0.00 | 86 | 1014.6 |
| 20260906105538 | 72 | 39 | 0.0 | 0.0 | 0.00 | 0.00 | 0.00 | 86 | 1014.6 |
| 20260906105431 | 72 | 43 | 0.0 | 0.0 | 0.00 | 0.00 | 0.00 | 86 | 1014.6 |
| 20260906105332 | 72 | 51 | 0.0 | 0.0 | 0.00 | 0.00 | 0.00 | 86 | 1014.6 |
| 20260906105230 | 72 | 57 | 0.0 | 0.0 | 0.00 | 0.00 | 0.00 | 86 | 1014.6 |
| 20260906105129 | 72 | 65 | 0.0 | 0.0 | 0.00 | 0.00 | 0.00 | 86 | 1014.6 |
| 20260906105027 | 72 | 77 | 0.0 | 0.0 | 0.00 | 0.00 | 0.00 | 86 | 1014.6 |
| 20260906104927 | 72 | 79 | 0.0 | 0.0 | 0.00 | 0.00 | 0.00 | 86 | 1014.7 |
| 20260906104826 | 72 | 147 | 0.0 | 0.0 | 0.00 | 0.00 | 0.00 | 86 | 1014.7 |
| 20260906104726 | 72 | 22 | 0.0 | 0.0 | 0.00 | 0.00 | 0.00 | 86 | 1014.6 |
| 20260906104622 | 72 | 22 | 0.0 | 0.0 | 0.00 | 0.00 | 0.00 | 86 | 1014.7 |
| 20260906104521 | 72 | 23 | 0.0 | 0.0 | 0.00 | 0.00 | 0.00 | 86 | 1014.6 |
| 20260906104421 | 72 | 23 | 0.0 | 0.0 | 0.00 | 0.00 | 0.00 | 86 | 1014.7 |
| 20260906104320 | 72 | 23 | 0.0 | 0.0 | 0.00 | 0.00 | 0.00 | 86 | 1014.7 |
| 20260906104219 | 72 | 23 | 0.0 | 0.0 | 0.00 | 0.00 | 0.00 | 86 | 1014.6 |
| 20260906104118 | 72 | 23 | 0.0 | 0.0 | 0.00 | 0.00 | 0.00 | 86 | 1014.6 |
| 20260906104016 | 72 | 153 | 0.0 | 0.0 | 0.00 | 0.00 | 0.00 | 86 | 1014.6 |
| 20260906103905 | 72 | 152 | 0.0 | 0.0 | 0.00 | 0.00 | 0.00 | 86 | 1014.6 |
| 20260906103805 | 72 | 152 | 0.0 | 0.0 | 0.00 | 0.00 | 0.00 | 86 | 1014.6 |
| 20260906103705 | 72 | 152 | 0.0 | 0.0 | 0.00 | 0.00 | 0.00 | 86 | 1014.7 |
| 20260906103604 | 72 | 152 | 0.0 | 0.0 | 0.00 | 0.00 | 0.00 | 86 | 1014.7 |
| 20260906103505 | 72 | 152 | 0.0 | 0.0 | 0.00 | 0.00 | 0.00 | 86 | 1014.6 |
| 20260906103403 | 72 | 152 | 0.0 | 0.0 | 0.00 | 0.00 | 0.00 | 86 | 1014.6 |
| 20260906103303 | 72 | 152 | 0.0 | 0.0 | 0.00 | 0.00 | 0.00 | 86 | 1014.5 |
| 20260906103204 | 72 | 152 | 0.0 | 0.0 | 0.00 | 0.00 | 0.00 | 86 | 1014.6 |
| 20260906103101 | 72 | 152 | 0.0 | 0.0 | 0.00 | 0.00 | 0.00 | 86 | 1014.5 |
| 20260906103000 | 72 | 152 | 0.0 | 0.0 | 0.00 | 0.00 | 0.00 | 86 | 1014.6 |
| 20260906102859 | 72 | 152 | 0.0 | 0.0 | 0.00 | 0.00 | 0.00 | 86 | 1014.6 |
| 20260906102757 | 72 | 152 | 0.0 | 0.0 | 0.00 | 0.00 | 0.00 | 86 | 1014.5 |
| 20260906102656 | 72 | 152 | 0.0 | 0.0 | 0.00 | 0.00 | 0.00 | 86 | 1014.5 |
| 20260906102556 | 72 | 140 | 0.0 | 0.0 | 0.00 | 0.00 | 0.00 | 86 | 1014.6 |
| 20260906102453 | 72 | 96 | 0.0 | 0.0 | 0.00 | 0.00 | 0.00 | 86 | 1014.5 |
| 20260906102346 | 72 | 93 | 0.0 | 0.0 | 0.00 | 0.00 | 0.00 | 86 | 1014.5 |
| 20260906102248 | 72 | 92 | 0.0 | 0.0 | 0.00 | 0.00 | 0.00 | 86 | 1014.6 |
| 20260906102148 | 72 | 92 | 0.0 | 0.0 | 0.00 | 0.00 | 0.00 | 86 | 1014.6 |
| 20260906102046 | 72 | 92 | 0.0 | 0.0 | 0.00 | 0.00 | 0.00 | 86 | 1014.5 |
| 20260906101944 | 72 | 88 | 0.0 | 0.0 | 0.00 | 0.00 | 0.00 | 86 | 1014.5 |
| 20260906101842 | 72 | 88 | 0.0 | 0.0 | 0.00 | 0.00 | 0.00 | 86 | 1014.6 |
| 20260906101741 | 72 | 88 | 0.0 | 0.0 | 0.00 | 0.00 | 0.00 | 86 | 1014.5 |
| 20260906101642 | 72 | 88 | 0.0 | 0.0 | 0.00 | 0.00 | 0.00 | 86 | 1014.5 |
| 20260906101539 | 72 | 88 | 0.0 | 0.0 | 0.00 | 0.00 | 0.00 | 86 | 1014.5 |
| 20260906101438 | 72 | 88 | 0.0 | 0.0 | 0.00 | 0.00 | 0.00 | 86 | 1014.4 |
| 20260906101334 | 72 | 89 | 0.0 | 0.0 | 0.00 | 0.00 | 0.00 | 86 | 1014.4 |
| 20260906101231 | 72 | 88 | 0.0 | 0.0 | 0.00 | 0.00 | 0.00 | 86 | 1014.4 |
| 20260906101132 | 72 | 80 | 0.0 | 0.0 | 0.00 | 0.00 | 0.00 | 86 | 1014.3 |
| 20260906101032 | 72 | 101 | 0.0 | 0.0 | 0.00 | 0.00 | 0.00 | 86 | 1014.3 |
| 20260906100932 | 72 | 92 | 0.0 | 0.0 | 0.00 | 0.00 | 0.00 | 86 | 1014.3 |
| 20260906100825 | 72 | 92 | 0.0 | 0.0 | 0.00 | 0.00 | 0.00 | 86 | 1014.3 |
| 20260906100726 | 72 | 59 | 0.0 | 0.0 | 0.00 | 0.00 | 0.00 | 86 | 1014.3 |
| 20260906100624 | 72 | 64 | 0.0 | 0.0 | 0.00 | 0.00 | 0.00 | 86 | 1014.3 |
| 20260906100523 | 72 | 72 | 0.0 | 0.0 | 0.00 | 0.00 | 0.00 | 86 | 1014.3 |
| 20260906100421 | 72 | 69 | 0.0 | 0.0 | 0.00 | 0.00 | 0.00 | 86 | 1014.4 |
| 20260906100318 | 72 | 86 | 0.0 | 0.0 | 0.00 | 0.00 | 0.00 | 86 | 1014.3 |
| 20260906100216 | 72 | 73 | 0.0 | 0.0 | 0.00 | 0.00 | 0.00 | 86 | 1014.3 |
| 20260906100115 | 72 | 72 | 0.0 | 0.0 | 0.00 | 0.00 | 0.00 | 86 | 1014.3 |
| 20260906100015 | 72 | 69 | 0.0 | 0.0 | 0.00 | 0.00 | 0.00 | 86 | 1014.3 |
| 20260906095915 | 72 | 68 | 0.0 | 0.0 | 0.00 | 0.00 | 0.00 | 86 | 1014.2 |
| 20260906095816 | 72 | 87 | 0.0 | 0.0 | 0.00 | 0.00 | 0.00 | 86 | 1014.2 |
| 20260906095714 | 72 | 92 | 0.0 | 0.0 | 0.00 | 0.00 | 0.00 | 86 | 1014.2 |
| 20260906095613 | 72 | 94 | 0.0 | 0.0 | 0.00 | 0.00 | 0.00 | 86 | 1014.3 |
| 20260906095512 | 72 | 101 | 0.0 | 0.0 | 0.00 | 0.00 | 0.00 | 86 | 1014.2 |
| 20260906095409 | 72 | 109 | 0.0 | 0.0 | 0.00 | 0.00 | 0.00 | 86 | 1014.1 |
| 20260906095259 | 72 | 109 | 0.0 | 0.0 | 0.00 | 0.00 | 0.00 | 87 | 1014.1 |
| 20260906095200 | 72 | 113 | 0.0 | 0.0 | 0.00 | 0.00 | 0.00 | 86 | 1014.1 |
| 20260906095100 | 72 | 113 | 0.0 | 0.0 | 0.00 | 0.00 | 0.00 | 86 | 1014.1 |
| 20260906095000 | 72 | 113 | 0.0 | 0.0 | 0.00 | 0.00 | 0.00 | 86 | 1014.1 |
| 20260906094900 | 72 | 113 | 0.0 | 0.0 | 0.00 | 0.00 | 0.00 | 86 | 1014.1 |
| 20260906094758 | 72 | 114 | 0.0 | 0.0 | 0.00 | 0.00 | 0.00 | 87 | 1014.1 |
| 20260906094657 | 72 | 114 | 0.0 | 0.0 | 0.00 | 0.00 | 0.00 | 87 | 1014.1 |
| 20260906094555 | 71 | 114 | 0.0 | 0.0 | 0.00 | 0.00 | 0.00 | 87 | 1014.1 |
| 20260906094456 | 72 | 114 | 0.0 | 0.0 | 0.00 | 0.00 | 0.00 | 86 | 1014.1 |
| 20260906094353 | 72 | 114 | 0.0 | 0.0 | 0.00 | 0.00 | 0.00 | 87 | 1014.1 |
| 20260906094250 | 72 | 114 | 0.0 | 0.0 | 0.00 | 0.00 | 0.00 | 87 | 1014.1 |
| 20260906094147 | 72 | 112 | 0.0 | 0.0 | 0.00 | 0.00 | 0.00 | 87 | 1014.1 |
| 20260906094048 | 71 | 111 | 0.0 | 0.0 | 0.00 | 0.00 | 0.00 | 87 | 1014.1 |
| 20260906093946 | 71 | 110 | 0.0 | 0.0 | 0.00 | 0.00 | 0.00 | 87 | 1014.1 |
| 20260906093848 | 72 | 109 | 0.0 | 0.0 | 0.00 | 0.00 | 0.00 | 87 | 1014.1 |
| 20260906093739 | 72 | 109 | 0.0 | 0.0 | 0.00 | 0.00 | 0.00 | 87 | 1014.1 |
| 20260906093638 | 72 | 109 | 0.0 | 0.0 | 0.00 | 0.00 | 0.00 | 87 | 1014.1 |
| 20260906093537 | 72 | 107 | 0.0 | 0.0 | 0.00 | 0.00 | 0.00 | 86 | 1014.1 |
| 20260906093436 | 72 | 105 | 0.0 | 0.0 | 0.00 | 0.00 | 0.00 | 86 | 1014.0 |
| 20260906093337 | 72 | 105 | 0.0 | 0.0 | 0.00 | 0.00 | 0.00 | 86 | 1014.1 |
| 20260906093232 | 72 | 105 | 0.0 | 0.0 | 0.00 | 0.00 | 0.00 | 86 | 1014.1 |
| 20260906093131 | 72 | 105 | 0.0 | 0.0 | 0.00 | 0.00 | 0.00 | 86 | 1014.0 |
| 20260906093030 | 72 | 104 | 0.0 | 0.0 | 0.00 | 0.00 | 0.00 | 86 | 1014.0 |
| 20260906092930 | 72 | 103 | 0.0 | 0.0 | 0.00 | 0.00 | 0.00 | 86 | 1014.0 |
| 20260906092831 | 72 | 102 | 0.0 | 0.0 | 0.00 | 0.00 | 0.00 | 86 | 1014.1 |
| 20260906092731 | 72 | 102 | 0.0 | 0.0 | 0.00 | 0.00 | 0.00 | 86 | 1014.1 |
| 20260906092629 | 72 | 101 | 0.0 | 0.0 | 0.00 | 0.00 | 0.00 | 86 | 1014.1 |
| 20260906092527 | 72 | 96 | 0.0 | 0.0 | 0.00 | 0.00 | 0.00 | 86 | 1014.1 |
| 20260906092428 | 72 | 75 | 0.0 | 0.0 | 0.00 | 0.00 | 0.00 | 86 | 1014.1 |
| 20260906092326 | 72 | 75 | 0.0 | 0.0 | 0.00 | 0.00 | 0.00 | 86 | 1014.1 |
| 20260906092219 | 72 | 74 | 0.0 | 0.0 | 0.00 | 0.00 | 0.00 | 86 | 1014.1 |
| 20260906092120 | 72 | 70 | 0.0 | 0.0 | 0.00 | 0.00 | 0.00 | 86 | 1014.2 |
| 20260906092020 | 72 | 5 | 0.0 | 0.0 | 0.00 | 0.00 | 0.00 | 86 | 1014.1 |
| 20260906091918 | 72 | 0 | 0.0 | 0.0 | 0.00 | 0.00 | 0.00 | 85 | 1014.1 |
| 20260906091815 | 72 | 0 | 0.0 | 0.0 | 0.00 | 0.00 | 0.00 | 85 | 1014.1 |
| 20260906091716 | 72 | 0 | 0.0 | 0.0 | 0.00 | 0.00 | 0.00 | 85 | 1014.1 |
| 20260906091612 | 72 | 0 | 0.0 | 0.0 | 0.00 | 0.00 | 0.00 | 85 | 1014.1 |
| 20260906091511 | 72 | 0 | 0.0 | 0.0 | 0.00 | 0.00 | 0.00 | 85 | 1014.1 |
| 20260906091412 | 72 | 0 | 0.0 | 0.0 | 0.00 | 0.00 | 0.00 | 85 | 1014.0 |
| 20260906091310 | 72 | 0 | 0.0 | 0.0 | 0.00 | 0.00 | 0.00 | 85 | 1014.1 |
| 20260906091203 | 72 | 0 | 0.0 | 0.0 | 0.00 | 0.00 | 0.00 | 85 | 1014.0 |
| 20260906091103 | 72 | 0 | 0.0 | 0.0 | 0.00 | 0.00 | 0.00 | 85 | 1014.1 |
| 20260906091004 | 72 | 0 | 0.0 | 0.0 | 0.00 | 0.00 | 0.00 | 85 | 1014.0 |
| 20260906090904 | 72 | 0 | 0.0 | 0.0 | 0.00 | 0.00 | 0.00 | 85 | 1014.1 |
| 20260906090803 | 72 | 0 | 0.0 | 0.0 | 0.00 | 0.00 | 0.00 | 85 | 1014.0 |
| 20260906090656 | 72 | 0 | 0.0 | 0.0 | 0.00 | 0.00 | 0.00 | 85 | 1014.0 |
| 20260906090558 | 72 | 0 | 0.0 | 0.0 | 0.00 | 0.00 | 0.00 | 85 | 1014.1 |
| 20260906090458 | 72 | 0 | 0.0 | 0.0 | 0.00 | 0.00 | 0.00 | 85 | 1014.1 |
| 20260906090355 | 72 | 0 | 0.0 | 0.0 | 0.00 | 0.00 | 0.00 | 85 | 1014.0 |
| 20260906090254 | 72 | 0 | 0.0 | 0.0 | 0.00 | 0.00 | 0.00 | 85 | 1014.0 |
| 20260906090148 | 72 | 0 | 0.0 | 0.0 | 0.00 | 0.00 | 0.00 | 85 | 1014.0 |
| 20260906090048 | 72 | 0 | 0.0 | 0.0 | 0.00 | 0.00 | 0.00 | 85 | 1014.0 |
| 20260906085947 | 72 | 0 | 0.0 | 0.0 | 0.00 | 0.00 | 0.00 | 85 | 1014.0 |
| 20260906085847 | 72 | 351 | 0.0 | 0.0 | 0.00 | 0.00 | 0.00 | 85 | 1014.0 |
| 20260906085748 | 72 | 349 | 0.0 | 0.0 | 0.00 | 0.00 | 0.00 | 85 | 1014.0 |
| 20260906085646 | 72 | 349 | 0.0 | 0.0 | 0.00 | 0.00 | 0.00 | 85 | 1014.0 |
| 20260906085546 | 72 | 349 | 0.0 | 0.0 | 0.00 | 0.00 | 0.00 | 85 | 1014.0 |
| 20260906085445 | 72 | 349 | 0.0 | 0.0 | 0.00 | 0.00 | 0.00 | 85 | 1014.0 |
| 20260906085344 | 72 | 346 | 0.0 | 0.0 | 0.00 | 0.00 | 0.00 | 85 | 1014.0 |
| 20260906085242 | 72 | 346 | 0.0 | 0.0 | 0.00 | 0.00 | 0.00 | 85 | 1014.0 |
| 20260906085135 | 72 | 323 | 0.0 | 0.0 | 0.00 | 0.00 | 0.00 | 85 | 1014.1 |
| 20260906085036 | 72 | 326 | 0.0 | 0.0 | 0.00 | 0.00 | 0.00 | 85 | 1014.0 |
| 20260906084936 | 72 | 330 | 0.0 | 0.0 | 0.00 | 0.00 | 0.00 | 85 | 1014.0 |
| 20260906084833 | 72 | 321 | 0.0 | 0.0 | 0.00 | 0.00 | 0.00 | 85 | 1014.0 |
| 20260906084732 | 72 | 311 | 0.0 | 0.0 | 0.00 | 0.00 | 0.00 | 85 | 1014.0 |
| 20260906084630 | 72 | 311 | 0.0 | 0.0 | 0.00 | 0.00 | 0.00 | 85 | 1014.0 |
| 20260906084528 | 72 | 307 | 0.0 | 0.0 | 0.00 | 0.00 | 0.00 | 85 | 1014.0 |
| 20260906084428 | 72 | 288 | 0.0 | 0.0 | 0.00 | 0.00 | 0.00 | 85 | 1014.0 |
| 20260906084328 | 72 | 279 | 0.0 | 0.0 | 0.00 | 0.00 | 0.00 | 85 | 1014.0 |
| 20260906084225 | 72 | 292 | 0.0 | 0.0 | 0.00 | 0.00 | 0.00 | 85 | 1013.9 |
| 20260906084118 | 72 | 293 | 0.0 | 0.0 | 0.00 | 0.00 | 0.00 | 85 | 1014.0 |
| 20260906084020 | 72 | 291 | 0.0 | 0.0 | 0.00 | 0.00 | 0.00 | 84 | 1014.0 |
| 20260906083920 | 72 | 309 | 0.0 | 0.0 | 0.00 | 0.00 | 0.00 | 84 | 1013.9 |
| 20260906083820 | 72 | 311 | 0.0 | 0.0 | 0.00 | 0.00 | 0.00 | 84 | 1014.0 |
| 20260906083720 | 73 | 315 | 0.0 | 0.0 | 0.00 | 0.00 | 0.00 | 84 | 1013.9 |
| 20260906083612 | 73 | 301 | 0.0 | 0.0 | 0.00 | 0.00 | 0.00 | 84 | 1013.8 |
| 20260906083512 | 73 | 308 | 0.0 | 0.0 | 0.00 | 0.00 | 0.00 | 84 | 1013.9 |
| 20260906083411 | 73 | 302 | 0.0 | 0.0 | 0.00 | 0.00 | 0.00 | 84 | 1013.9 |
| 20260906083310 | 73 | 304 | 0.0 | 0.0 | 0.00 | 0.00 | 0.00 | 84 | 1013.8 |
| 20260906083209 | 73 | 279 | 0.0 | 0.0 | 0.00 | 0.00 | 0.00 | 84 | 1013.9 |
| 20260906083103 | 73 | 299 | 0.0 | 0.0 | 0.00 | 0.00 | 0.00 | 84 | 1013.9 |
| 20260906083006 | 73 | 307 | 0.0 | 0.0 | 0.00 | 0.00 | 0.00 | 84 | 1013.8 |
| 20260906082904 | 73 | 298 | 0.0 | 0.0 | 0.00 | 0.00 | 0.00 | 84 | 1013.8 |
| 20260906082803 | 73 | 301 | 0.0 | 0.0 | 0.00 | 0.00 | 0.00 | 84 | 1013.8 |
| 20260906082703 | 73 | 304 | 0.0 | 0.0 | 0.00 | 0.00 | 0.00 | 84 | 1013.9 |
| 20260906082558 | 72 | 313 | 0.0 | 0.0 | 0.00 | 0.00 | 0.00 | 84 | 1013.9 |
| 20260906082500 | 73 | 296 | 0.0 | 0.0 | 0.00 | 0.00 | 0.00 | 84 | 1013.8 |
| 20260906082359 | 73 | 292 | 0.0 | 0.0 | 0.00 | 0.00 | 0.00 | 84 | 1013.9 |
| 20260906082300 | 73 | 279 | 0.0 | 0.0 | 0.00 | 0.00 | 0.00 | 84 | 1013.9 |
| 20260906082158 | 73 | 284 | 0.0 | 0.0 | 0.00 | 0.00 | 0.00 | 84 | 1013.8 |
| 20260906082051 | 73 | 284 | 0.0 | 0.0 | 0.00 | 0.00 | 0.00 | 84 | 1013.9 |
| 20260906081952 | 73 | 305 | 0.0 | 0.0 | 0.00 | 0.00 | 0.00 | 84 | 1013.9 |
| 20260906081851 | 73 | 306 | 0.0 | 0.0 | 0.00 | 0.00 | 0.00 | 84 | 1013.9 |
| 20260906081749 | 73 | 306 | 0.0 | 0.0 | 0.00 | 0.00 | 0.00 | 84 | 1013.8 |
| 20260906081648 | 73 | 306 | 0.0 | 0.0 | 0.00 | 0.00 | 0.00 | 84 | 1013.8 |
| 20260906081547 | 73 | 306 | 0.0 | 0.0 | 0.00 | 0.00 | 0.00 | 83 | 1013.9 |
| 20260906081446 | 73 | 307 | 0.0 | 0.0 | 0.00 | 0.00 | 0.00 | 83 | 1013.9 |
| 20260906081346 | 73 | 307 | 0.0 | 0.0 | 0.00 | 0.00 | 0.00 | 83 | 1013.9 |
| 20260906081243 | 73 | 307 | 0.0 | 0.0 | 0.00 | 0.00 | 0.00 | 83 | 1013.9 |
| 20260906081142 | 73 | 308 | 0.0 | 0.0 | 0.00 | 0.00 | 0.00 | 83 | 1013.9 |
| 20260906081038 | 73 | 307 | 0.0 | 0.0 | 0.00 | 0.00 | 0.00 | 83 | 1013.9 |
| 20260906080934 | 73 | 307 | 0.0 | 0.0 | 0.00 | 0.00 | 0.00 | 83 | 1013.9 |
| 20260906080835 | 73 | 308 | 0.0 | 0.0 | 0.00 | 0.00 | 0.00 | 82 | 1013.9 |
| 20260906080733 | 73 | 303 | 0.0 | 0.0 | 0.00 | 0.00 | 0.00 | 82 | 1013.9 |
| 20260906080634 | 74 | 312 | 0.0 | 0.0 | 0.00 | 0.00 | 0.00 | 82 | 1013.8 |
| 20260906080527 | 74 | 315 | 0.0 | 0.0 | 0.00 | 0.00 | 0.00 | 82 | 1013.8 |
| 20260906080427 | 74 | 327 | 0.0 | 0.0 | 0.00 | 0.00 | 0.00 | 82 | 1013.8 |
| 20260906080327 | 74 | 329 | 0.0 | 0.0 | 0.00 | 0.00 | 0.00 | 81 | 1013.8 |
| 20260906080225 | 74 | 333 | 0.0 | 0.0 | 0.00 | 0.00 | 0.00 | 81 | 1013.8 |
| 20260906080124 | 74 | 338 | 0.0 | 0.0 | 0.00 | 0.00 | 0.00 | 81 | 1013.8 |
| 20260906080017 | 74 | 330 | 0.0 | 0.0 | 0.00 | 0.00 | 0.00 | 81 | 1013.8 |
| 20260906075918 | 74 | 330 | 0.0 | 0.0 | 0.00 | 0.00 | 0.00 | 80 | 1013.8 |
| 20260906075816 | 74 | 324 | 0.0 | 0.0 | 0.00 | 0.00 | 0.00 | 80 | 1013.8 |
| 20260906075716 | 74 | 325 | 0.0 | 0.0 | 0.00 | 0.00 | 0.00 | 80 | 1013.8 |
| 20260906075618 | 74 | 313 | 0.0 | 0.0 | 0.00 | 0.00 | 0.00 | 80 | 1013.8 |
| 20260906075511 | 74 | 311 | 0.0 | 0.0 | 0.00 | 0.00 | 0.00 | 80 | 1013.8 |
| 20260906075410 | 74 | 311 | 0.0 | 0.0 | 0.00 | 0.00 | 0.00 | 80 | 1013.8 |
| 20260906075309 | 74 | 313 | 0.0 | 0.0 | 0.00 | 0.00 | 0.00 | 80 | 1013.7 |
| 20260906075210 | 74 | 313 | 0.0 | 0.0 | 0.00 | 0.00 | 0.00 | 80 | 1013.7 |
| 20260906075110 | 74 | 318 | 0.0 | 0.0 | 0.00 | 0.00 | 0.00 | 80 | 1013.7 |
| 20260906074959 | 74 | 318 | 0.0 | 0.0 | 0.00 | 0.00 | 0.00 | 80 | 1013.7 |
| 20260906074859 | 74 | 313 | 0.0 | 0.0 | 0.00 | 0.00 | 0.00 | 80 | 1013.7 |
| 20260906074759 | 74 | 327 | 0.0 | 0.0 | 0.00 | 0.00 | 0.00 | 80 | 1013.8 |
| 20260906074700 | 74 | 327 | 0.0 | 0.0 | 0.00 | 0.00 | 0.00 | 80 | 1013.8 |
| 20260906074600 | 74 | 322 | 0.0 | 0.0 | 0.00 | 0.00 | 0.00 | 80 | 1013.7 |
| 20260906074456 | 74 | 313 | 0.0 | 0.0 | 0.00 | 0.00 | 0.00 | 81 | 1013.8 |
| 20260906074357 | 74 | 309 | 0.0 | 0.0 | 0.00 | 0.00 | 0.00 | 81 | 1013.8 |
| 20260906074258 | 74 | 304 | 0.0 | 0.0 | 0.00 | 0.00 | 0.00 | 81 | 1013.7 |
| 20260906074158 | 74 | 307 | 0.0 | 0.0 | 0.00 | 0.00 | 0.00 | 81 | 1013.7 |
| 20260906074055 | 74 | 310 | 0.0 | 0.0 | 0.00 | 0.00 | 0.00 | 81 | 1013.7 |
| 20260906073955 | 74 | 307 | 0.0 | 0.0 | 0.00 | 0.00 | 0.00 | 81 | 1013.7 |
| 20260906073854 | 74 | 308 | 0.0 | 0.0 | 0.00 | 0.00 | 0.00 | 81 | 1013.8 |
| 20260906073755 | 74 | 304 | 0.0 | 0.0 | 0.00 | 0.00 | 0.00 | 81 | 1013.8 |
| 20260906073653 | 74 | 297 | 0.0 | 0.0 | 0.00 | 0.00 | 0.00 | 81 | 1013.7 |
| 20260906073554 | 74 | 282 | 0.0 | 0.0 | 0.00 | 0.00 | 0.00 | 81 | 1013.5 |
| 20260906073451 | 74 | 301 | 0.0 | 0.0 | 0.00 | 0.00 | 0.00 | 81 | 1013.5 |
| 20260906073352 | 74 | 293 | 0.0 | 0.0 | 0.00 | 0.00 | 0.00 | 81 | 1013.5 |
| 20260906073252 | 74 | 292 | 0.0 | 0.0 | 0.00 | 0.00 | 0.00 | 81 | 1013.5 |
| 20260906073152 | 74 | 302 | 0.0 | 0.0 | 0.00 | 0.00 | 0.00 | 81 | 1013.5 |
| 20260906073051 | 74 | 303 | 0.0 | 0.0 | 0.00 | 0.00 | 0.00 | 81 | 1013.5 |
| 20260906072951 | 74 | 301 | 0.0 | 0.0 | 0.00 | 0.00 | 0.00 | 81 | 1013.7 |
| 20260906072852 | 74 | 303 | 0.0 | 0.0 | 0.00 | 0.00 | 0.00 | 81 | 1013.5 |
| 20260906072748 | 74 | 299 | 0.0 | 0.0 | 0.00 | 0.00 | 0.00 | 82 | 1013.5 |
| 20260906072645 | 74 | 295 | 0.0 | 0.0 | 0.00 | 0.00 | 0.00 | 82 | 1013.7 |
| 20260906072546 | 74 | 294 | 0.0 | 0.0 | 0.00 | 0.00 | 0.00 | 82 | 1013.7 |
| 20260906072445 | 74 | 293 | 0.0 | 0.0 | 0.00 | 0.00 | 0.00 | 82 | 1013.5 |
| 20260906072344 | 74 | 292 | 0.0 | 0.0 | 0.00 | 0.00 | 0.00 | 82 | 1013.5 |
| 20260906072244 | 74 | 292 | 0.0 | 0.0 | 0.00 | 0.00 | 0.00 | 82 | 1013.5 |
| 20260906072142 | 74 | 232 | 0.0 | 0.0 | 0.00 | 0.00 | 0.00 | 82 | 1013.5 |
| 20260906072043 | 74 | 254 | 0.0 | 0.0 | 0.00 | 0.00 | 0.00 | 82 | 1013.4 |
| 20260906071943 | 74 | 238 | 0.0 | 0.0 | 0.00 | 0.00 | 0.00 | 82 | 1013.4 |
| 20260906071842 | 73 | 244 | 0.0 | 0.0 | 0.00 | 0.00 | 0.00 | 82 | 1013.4 |
| 20260906071742 | 73 | 259 | 0.0 | 0.0 | 0.00 | 0.00 | 0.00 | 82 | 1013.4 |
| 20260906071644 | 73 | 270 | 0.0 | 0.0 | 0.00 | 0.00 | 0.00 | 82 | 1013.4 |
| 20260906071542 | 73 | 271 | 0.0 | 0.0 | 0.00 | 0.00 | 0.00 | 83 | 1013.5 |
| 20260906071444 | 73 | 281 | 0.0 | 0.0 | 0.00 | 0.00 | 0.00 | 83 | 1013.5 |
| 20260906071340 | 73 | 278 | 0.0 | 0.0 | 0.00 | 0.00 | 0.00 | 83 | 1013.5 |
| 20260906071240 | 73 | 283 | 0.0 | 0.0 | 0.00 | 0.00 | 0.00 | 83 | 1013.5 |
| 20260906071142 | 73 | 275 | 0.0 | 0.0 | 0.00 | 0.00 | 0.00 | 83 | 1013.5 |
| 20260906071042 | 73 | 280 | 0.0 | 0.0 | 0.00 | 0.00 | 0.00 | 83 | 1013.5 |
| 20260906070942 | 73 | 288 | 0.0 | 0.0 | 0.00 | 0.00 | 0.00 | 83 | 1013.7 |
| 20260906070842 | 73 | 272 | 0.0 | 0.0 | 0.00 | 0.00 | 0.00 | 83 | 1013.5 |
| 20260906070741 | 73 | 271 | 0.0 | 0.0 | 0.00 | 0.00 | 0.00 | 83 | 1013.5 |
| 20260906070642 | 73 | 271 | 0.0 | 0.0 | 0.00 | 0.00 | 0.00 | 83 | 1013.5 |
| 20260906070540 | 73 | 270 | 0.0 | 0.0 | 0.00 | 0.00 | 0.00 | 83 | 1013.7 |
| 20260906070441 | 73 | 261 | 0.0 | 0.0 | 0.00 | 0.00 | 0.00 | 83 | 1013.7 |
| 20260906070341 | 73 | 261 | 0.0 | 0.0 | 0.00 | 0.00 | 0.00 | 83 | 1013.8 |
| 20260906070241 | 73 | 267 | 0.0 | 0.0 | 0.00 | 0.00 | 0.00 | 83 | 1013.8 |
| 20260906070140 | 73 | 272 | 0.0 | 0.0 | 0.00 | 0.00 | 0.00 | 83 | 1013.8 |
| 20260906070040 | 73 | 279 | 0.0 | 0.0 | 0.00 | 0.00 | 0.00 | 83 | 1013.8 |
| 20260906065941 | 73 | 284 | 0.0 | 0.0 | 0.00 | 0.00 | 0.00 | 83 | 1013.8 |
| 20260906065841 | 73 | 279 | 0.0 | 0.0 | 0.00 | 0.00 | 0.00 | 83 | 1013.9 |
| 20260906065740 | 73 | 282 | 0.0 | 0.0 | 0.00 | 0.00 | 0.00 | 83 | 1013.9 |
| 20260906065640 | 73 | 284 | 0.0 | 0.0 | 0.00 | 0.00 | 0.00 | 83 | 1013.9 |
| 20260906065541 | 73 | 279 | 0.0 | 0.0 | 0.00 | 0.00 | 0.00 | 83 | 1013.9 |
| 20260906065441 | 73 | 278 | 0.0 | 0.0 | 0.00 | 0.00 | 0.00 | 83 | 1013.9 |
| 20260906065340 | 73 | 277 | 0.0 | 0.0 | 0.00 | 0.00 | 0.00 | 83 | 1014.0 |
| 20260906065240 | 73 | 274 | 0.0 | 0.0 | 0.00 | 0.00 | 0.00 | 83 | 1013.9 |
| 20260906065141 | 73 | 277 | 0.0 | 0.0 | 0.00 | 0.00 | 0.00 | 83 | 1013.9 |
| 20260906065042 | 73 | 268 | 0.0 | 0.0 | 0.00 | 0.00 | 0.00 | 83 | 1014.0 |
| 20260906064934 | 73 | 267 | 0.0 | 0.0 | 0.00 | 0.00 | 0.00 | 83 | 1013.9 |
| 20260906064832 | 73 | 264 | 0.0 | 0.0 | 0.00 | 0.00 | 0.00 | 83 | 1014.0 |
| 20260906064733 | 73 | 264 | 0.0 | 0.0 | 0.00 | 0.00 | 0.00 | 83 | 1013.9 |
| 20260906064633 | 73 | 270 | 0.0 | 0.0 | 0.00 | 0.00 | 0.00 | 83 | 1014.0 |
| 20260906064533 | 73 | 270 | 0.0 | 0.0 | 0.00 | 0.00 | 0.00 | 83 | 1014.0 |
| 20260906064432 | 73 | 270 | 0.0 | 0.0 | 0.00 | 0.00 | 0.00 | 83 | 1014.0 |
| 20260906064333 | 73 | 266 | 0.0 | 0.0 | 0.00 | 0.00 | 0.00 | 83 | 1014.1 |
| 20260906064233 | 73 | 266 | 0.0 | 0.0 | 0.00 | 0.00 | 0.00 | 83 | 1014.1 |
| 20260906064133 | 73 | 265 | 0.0 | 0.0 | 0.00 | 0.00 | 0.00 | 83 | 1014.1 |
| 20260906064032 | 73 | 266 | 0.0 | 0.0 | 0.00 | 0.00 | 0.00 | 83 | 1014.2 |
| 20260906063934 | 73 | 266 | 0.0 | 0.0 | 0.00 | 0.00 | 0.00 | 83 | 1014.3 |
| 20260906063832 | 73 | 266 | 0.0 | 0.0 | 0.00 | 0.00 | 0.00 | 83 | 1014.4 |
| 20260906063732 | 73 | 266 | 0.0 | 0.0 | 0.00 | 0.00 | 0.00 | 83 | 1014.4 |
| 20260906063634 | 73 | 190 | 0.0 | 0.0 | 0.00 | 0.00 | 0.00 | 83 | 1014.4 |
| 20260906063534 | 73 | 174 | 0.0 | 0.0 | 0.00 | 0.00 | 0.00 | 83 | 1014.4 |
| 20260906063433 | 73 | 173 | 0.0 | 0.0 | 0.00 | 0.00 | 0.00 | 83 | 1014.5 |
| 20260906063333 | 73 | 172 | 0.0 | 0.0 | 0.00 | 0.00 | 0.00 | 83 | 1014.4 |
| 20260906063232 | 73 | 172 | 0.0 | 0.0 | 0.00 | 0.00 | 0.00 | 83 | 1014.5 |
| 20260906063133 | 73 | 172 | 0.0 | 0.0 | 0.00 | 0.00 | 0.00 | 83 | 1014.5 |
| 20260906063032 | 73 | 172 | 0.0 | 0.0 | 0.00 | 0.00 | 0.00 | 82 | 1014.4 |
| 20260906062932 | 73 | 170 | 0.0 | 0.0 | 0.00 | 0.00 | 0.00 | 82 | 1014.5 |
| 20260906062834 | 73 | 171 | 0.0 | 0.0 | 0.00 | 0.00 | 0.00 | 82 | 1014.5 |
| 20260906062733 | 73 | 171 | 0.0 | 0.0 | 0.00 | 0.00 | 0.00 | 82 | 1014.5 |
| 20260906062634 | 73 | 170 | 0.0 | 0.0 | 0.00 | 0.00 | 0.00 | 82 | 1014.5 |
| 20260906062532 | 73 | 168 | 0.0 | 0.0 | 0.00 | 0.00 | 0.00 | 82 | 1014.5 |
| 20260906062433 | 73 | 165 | 0.0 | 0.0 | 0.00 | 0.00 | 0.00 | 82 | 1014.5 |
| 20260906062332 | 73 | 163 | 0.0 | 0.0 | 0.00 | 0.00 | 0.00 | 82 | 1014.5 |
| 20260906062233 | 73 | 161 | 0.0 | 0.0 | 0.00 | 0.00 | 0.00 | 82 | 1014.5 |
| 20260906062133 | 73 | 160 | 0.0 | 0.0 | 0.00 | 0.00 | 0.00 | 82 | 1014.5 |
| 20260906062032 | 73 | 166 | 0.0 | 0.0 | 0.00 | 0.00 | 0.00 | 82 | 1014.5 |
| 20260906061934 | 73 | 167 | 0.0 | 0.0 | 0.00 | 0.00 | 0.00 | 82 | 1014.5 |
| 20260906061833 | 73 | 167 | 0.0 | 0.0 | 0.00 | 0.00 | 0.00 | 81 | 1014.5 |
| 20260906061733 | 73 | 167 | 0.0 | 0.0 | 0.00 | 0.00 | 0.00 | 81 | 1014.5 |
| 20260906061629 | 73 | 161 | 0.0 | 0.0 | 0.00 | 0.00 | 0.00 | 81 | 1014.5 |
| 20260906061529 | 73 | 136 | 0.0 | 0.0 | 0.00 | 0.00 | 0.00 | 81 | 1014.5 |
| 20260906061429 | 73 | 123 | 0.0 | 0.0 | 0.00 | 0.00 | 0.00 | 81 | 1014.6 |
| 20260906061328 | 73 | 210 | 0.0 | 0.0 | 0.00 | 0.00 | 0.00 | 81 | 1014.6 |
| 20260906061228 | 73 | 215 | 0.0 | 0.0 | 0.00 | 0.00 | 0.00 | 81 | 1014.7 |
| 20260906061128 | 73 | 215 | 0.0 | 0.0 | 0.00 | 0.00 | 0.00 | 81 | 1014.6 |
| 20260906061029 | 73 | 215 | 0.0 | 0.0 | 0.00 | 0.00 | 0.00 | 81 | 1014.6 |
| 20260906060928 | 73 | 215 | 0.0 | 0.0 | 0.00 | 0.00 | 0.00 | 81 | 1014.6 |
| 20260906060829 | 73 | 215 | 0.0 | 0.0 | 0.00 | 0.00 | 0.00 | 81 | 1014.6 |
| 20260906060728 | 74 | 215 | 0.0 | 0.0 | 0.00 | 0.00 | 0.00 | 81 | 1014.5 |
| 20260906060628 | 74 | 217 | 0.0 | 0.0 | 0.00 | 0.00 | 0.00 | 81 | 1014.5 |
| 20260906060528 | 74 | 217 | 0.0 | 0.0 | 0.00 | 0.00 | 0.00 | 81 | 1014.5 |
| 20260906060428 | 74 | 217 | 0.0 | 0.0 | 0.00 | 0.00 | 0.00 | 81 | 1014.6 |
| 20260906060330 | 74 | 216 | 0.0 | 0.0 | 0.00 | 0.00 | 0.00 | 81 | 1014.5 |
| 20260906060228 | 74 | 217 | 0.0 | 0.0 | 0.00 | 0.00 | 0.00 | 81 | 1014.5 |
| 20260906060128 | 74 | 216 | 0.0 | 0.0 | 0.00 | 0.00 | 0.00 | 81 | 1014.5 |
| 20260906060028 | 74 | 217 | 0.0 | 0.0 | 0.00 | 0.00 | 0.00 | 81 | 1014.6 |
| 20260906055929 | 74 | 216 | 0.0 | 0.0 | 0.00 | 0.00 | 0.00 | 80 | 1014.5 |
| 20260906055828 | 74 | 225 | 0.0 | 0.0 | 0.00 | 0.00 | 0.00 | 80 | 1014.5 |
| 20260906055728 | 74 | 226 | 0.0 | 0.0 | 0.00 | 0.00 | 0.00 | 80 | 1014.6 |
| 20260906055628 | 74 | 236 | 0.0 | 0.0 | 0.00 | 0.00 | 0.00 | 80 | 1014.6 |
| 20260906055529 | 74 | 236 | 0.0 | 0.0 | 0.00 | 0.00 | 0.00 | 80 | 1014.6 |
| 20260906055428 | 74 | 237 | 0.0 | 0.0 | 0.00 | 0.00 | 0.00 | 80 | 1014.6 |
| 20260906055329 | 74 | 237 | 0.0 | 0.0 | 0.00 | 0.00 | 0.00 | 80 | 1014.6 |
| 20260906055228 | 74 | 236 | 0.0 | 0.0 | 0.00 | 0.00 | 0.00 | 80 | 1014.6 |
| 20260906055130 | 74 | 236 | 0.0 | 0.0 | 0.00 | 0.00 | 0.00 | 80 | 1014.6 |
| 20260906055029 | 74 | 236 | 0.0 | 0.0 | 0.00 | 0.00 | 0.00 | 80 | 1014.6 |
| 20260906054929 | 74 | 236 | 0.0 | 0.0 | 0.00 | 0.00 | 0.00 | 80 | 1014.6 |
| 20260906054829 | 74 | 236 | 0.0 | 0.0 | 0.00 | 0.00 | 0.00 | 80 | 1014.6 |
| 20260906054729 | 74 | 237 | 0.0 | 0.0 | 0.00 | 0.00 | 0.00 | 80 | 1014.6 |
| 20260906054628 | 74 | 239 | 0.0 | 0.0 | 0.00 | 0.00 | 0.00 | 80 | 1014.6 |
| 20260906054528 | 74 | 240 | 0.0 | 0.0 | 0.00 | 0.00 | 0.00 | 80 | 1014.6 |
| 20260906054429 | 74 | 240 | 0.0 | 0.0 | 0.00 | 0.00 | 0.00 | 80 | 1014.6 |
| 20260906054326 | 74 | 170 | 0.0 | 0.0 | 0.00 | 0.00 | 0.00 | 79 | 1014.5 |
| 20260906054224 | 74 | 169 | 0.0 | 0.0 | 0.00 | 0.00 | 0.00 | 79 | 1014.6 |
| 20260906054124 | 74 | 170 | 0.0 | 0.0 | 0.00 | 0.00 | 0.00 | 79 | 1014.6 |
| 20260906054025 | 74 | 171 | 0.0 | 0.0 | 0.00 | 0.00 | 0.00 | 79 | 1014.6 |
| 20260906053925 | 74 | 171 | 0.0 | 0.0 | 0.00 | 0.00 | 0.00 | 79 | 1014.6 |
| 20260906053825 | 74 | 182 | 0.0 | 0.0 | 0.00 | 0.00 | 0.00 | 79 | 1014.6 |
| 20260906053724 | 74 | 182 | 0.0 | 0.0 | 0.00 | 0.00 | 0.00 | 79 | 1014.6 |
| 20260906053626 | 74 | 182 | 0.0 | 0.0 | 0.00 | 0.00 | 0.00 | 79 | 1014.6 |
| 20260906053525 | 74 | 188 | 0.0 | 0.0 | 0.00 | 0.00 | 0.00 | 79 | 1014.7 |
| 20260906053425 | 74 | 188 | 0.0 | 0.0 | 0.00 | 0.00 | 0.00 | 79 | 1014.6 |
| 20260906053326 | 74 | 188 | 0.0 | 0.0 | 0.00 | 0.00 | 0.00 | 79 | 1014.7 |
| 20260906053224 | 74 | 189 | 0.0 | 0.0 | 0.00 | 0.00 | 0.00 | 79 | 1014.6 |
| 20260906053125 | 74 | 189 | 0.0 | 0.0 | 0.00 | 0.00 | 0.00 | 79 | 1014.6 |
| 20260906053025 | 74 | 189 | 0.0 | 0.0 | 0.00 | 0.00 | 0.00 | 79 | 1014.6 |
| 20260906052924 | 74 | 190 | 0.0 | 0.0 | 0.00 | 0.00 | 0.00 | 79 | 1014.7 |
| 20260906052825 | 74 | 191 | 0.0 | 0.0 | 0.00 | 0.00 | 0.00 | 79 | 1014.7 |
| 20260906052725 | 74 | 191 | 0.0 | 0.0 | 0.00 | 0.00 | 0.00 | 79 | 1014.6 |
| 20260906052624 | 74 | 191 | 0.0 | 0.0 | 0.00 | 0.00 | 0.00 | 79 | 1014.6 |
| 20260906052524 | 74 | 191 | 0.0 | 0.0 | 0.00 | 0.00 | 0.00 | 79 | 1014.7 |
| 20260906052424 | 74 | 191 | 0.0 | 0.0 | 0.00 | 0.00 | 0.00 | 79 | 1014.6 |
| 20260906052325 | 74 | 191 | 0.0 | 0.0 | 0.00 | 0.00 | 0.00 | 79 | 1014.7 |
| 20260906052226 | 74 | 191 | 0.0 | 0.0 | 0.00 | 0.00 | 0.00 | 79 | 1014.6 |
| 20260906052124 | 74 | 191 | 0.0 | 0.0 | 0.00 | 0.00 | 0.00 | 79 | 1014.6 |
| 20260906052026 | 74 | 191 | 0.0 | 0.0 | 0.00 | 0.00 | 0.00 | 79 | 1014.6 |
| 20260906051924 | 74 | 191 | 0.0 | 0.0 | 0.00 | 0.00 | 0.00 | 79 | 1014.6 |
| 20260906051825 | 74 | 191 | 0.0 | 0.0 | 0.00 | 0.00 | 0.00 | 79 | 1014.7 |
| 20260906051724 | 74 | 191 | 0.0 | 0.0 | 0.00 | 0.00 | 0.00 | 79 | 1014.7 |
| 20260906051624 | 74 | 183 | 0.0 | 0.0 | 0.00 | 0.00 | 0.00 | 80 | 1014.7 |
| 20260906051526 | 74 | 182 | 0.0 | 0.0 | 0.00 | 0.00 | 0.00 | 80 | 1014.7 |
| 20260906051424 | 74 | 182 | 0.0 | 0.0 | 0.00 | 0.00 | 0.00 | 80 | 1014.8 |
| 20260906051325 | 74 | 182 | 0.0 | 0.0 | 0.00 | 0.00 | 0.00 | 80 | 1014.8 |
| 20260906051225 | 74 | 182 | 0.0 | 0.0 | 0.00 | 0.00 | 0.00 | 80 | 1014.8 |
| 20260906051126 | 74 | 182 | 0.0 | 0.0 | 0.00 | 0.00 | 0.00 | 80 | 1014.8 |
| 20260906051020 | 74 | 182 | 0.0 | 0.0 | 0.00 | 0.00 | 0.00 | 79 | 1014.8 |
| 20260906050918 | 74 | 182 | 0.0 | 0.0 | 0.00 | 0.00 | 0.00 | 79 | 1014.8 |
| 20260906050820 | 74 | 217 | 0.0 | 0.0 | 0.00 | 0.00 | 0.00 | 79 | 1014.8 |
| 20260906050719 | 74 | 244 | 0.0 | 0.0 | 0.00 | 0.00 | 0.00 | 79 | 1014.7 |
| 20260906050618 | 74 | 245 | 0.0 | 0.0 | 0.00 | 0.00 | 0.00 | 79 | 1014.8 |
| 20260906050517 | 74 | 245 | 0.0 | 0.0 | 0.00 | 0.00 | 0.00 | 79 | 1014.8 |
| 20260906050416 | 74 | 246 | 0.0 | 0.0 | 0.00 | 0.00 | 0.00 | 79 | 1014.8 |
| 20260906050314 | 74 | 333 | 0.0 | 0.0 | 0.00 | 0.00 | 0.00 | 80 | 1014.8 |
| 20260906050213 | 74 | 333 | 0.0 | 0.0 | 0.00 | 0.00 | 0.00 | 79 | 1014.8 |
| 20260906050111 | 74 | 333 | 0.0 | 0.0 | 0.00 | 0.00 | 0.00 | 79 | 1014.9 |
| 20260906050002 | 74 | 333 | 0.0 | 0.0 | 0.00 | 0.00 | 0.00 | 79 | 1014.9 |
| 20260906045900 | 74 | 333 | 0.0 | 0.0 | 0.00 | 0.00 | 0.00 | 79 | 1015.0 |
| 20260906045800 | 74 | 333 | 0.0 | 0.0 | 0.00 | 0.00 | 0.00 | 79 | 1014.9 |
| 20260906045700 | 74 | 332 | 0.0 | 0.0 | 0.00 | 0.00 | 0.00 | 79 | 1014.9 |
| 20260906045600 | 74 | 332 | 0.0 | 0.0 | 0.00 | 0.00 | 0.00 | 79 | 1014.8 |
| 20260906045500 | 74 | 332 | 0.0 | 0.0 | 0.00 | 0.00 | 0.00 | 79 | 1014.9 |
| 20260906045400 | 74 | 332 | 0.0 | 0.0 | 0.00 | 0.00 | 0.00 | 79 | 1014.8 |
| 20260906045258 | 74 | 332 | 0.0 | 0.0 | 0.00 | 0.00 | 0.00 | 79 | 1014.8 |
| 20260906045157 | 74 | 332 | 0.0 | 0.0 | 0.00 | 0.00 | 0.00 | 79 | 1014.9 |
| 20260906045055 | 74 | 332 | 0.0 | 0.0 | 0.00 | 0.00 | 0.00 | 79 | 1014.9 |
| 20260906044956 | 74 | 332 | 0.0 | 0.0 | 0.00 | 0.00 | 0.00 | 79 | 1014.8 |
| 20260906044853 | 74 | 332 | 0.0 | 0.0 | 0.00 | 0.00 | 0.00 | 79 | 1015.0 |
| 20260906044752 | 74 | 332 | 0.0 | 0.0 | 0.00 | 0.00 | 0.00 | 79 | 1014.9 |
| 20260906044651 | 74 | 332 | 0.0 | 0.0 | 0.00 | 0.00 | 0.00 | 80 | 1014.9 |
| 20260906044549 | 74 | 332 | 0.0 | 0.0 | 0.00 | 0.00 | 0.00 | 80 | 1014.9 |
| 20260906044442 | 74 | 332 | 0.0 | 0.0 | 0.00 | 0.00 | 0.00 | 80 | 1015.0 |
| 20260906044342 | 74 | 332 | 0.0 | 0.0 | 0.00 | 0.00 | 0.00 | 80 | 1014.9 |
| 20260906044243 | 74 | 333 | 0.0 | 0.0 | 0.00 | 0.00 | 0.00 | 80 | 1015.0 |
| 20260906044141 | 74 | 333 | 0.0 | 0.0 | 0.00 | 0.00 | 0.00 | 80 | 1014.9 |
| 20260906044038 | 74 | 333 | 0.0 | 0.0 | 0.00 | 0.00 | 0.00 | 80 | 1014.9 |
| 20260906043936 | 74 | 332 | 0.0 | 0.0 | 0.00 | 0.00 | 0.00 | 80 | 1014.9 |
| 20260906043832 | 74 | 332 | 0.0 | 0.0 | 0.00 | 0.00 | 0.00 | 80 | 1014.9 |
| 20260906043732 | 74 | 332 | 0.0 | 0.0 | 0.00 | 0.00 | 0.00 | 80 | 1015.0 |
| 20260906043634 | 74 | 332 | 0.0 | 0.0 | 0.00 | 0.00 | 0.00 | 80 | 1015.0 |
| 20260906043533 | 74 | 332 | 0.0 | 0.0 | 0.00 | 0.00 | 0.00 | 80 | 1015.0 |
| 20260906043433 | 74 | 333 | 0.0 | 0.0 | 0.00 | 0.00 | 0.00 | 80 | 1015.0 |
| 20260906043331 | 74 | 333 | 0.0 | 0.0 | 0.00 | 0.00 | 0.00 | 80 | 1015.0 |
| 20260906043230 | 74 | 332 | 0.0 | 0.0 | 0.00 | 0.00 | 0.00 | 81 | 1015.0 |
| 20260906043130 | 74 | 344 | 0.0 | 0.0 | 0.00 | 0.00 | 0.00 | 81 | 1015.1 |
| 20260906043027 | 74 | 344 | 0.0 | 0.0 | 0.00 | 0.00 | 0.00 | 80 | 1015.1 |
| 20260906042922 | 74 | 344 | 0.0 | 0.0 | 0.00 | 0.00 | 0.00 | 81 | 1015.1 |
| 20260906042820 | 74 | 344 | 0.0 | 0.0 | 0.00 | 0.00 | 0.00 | 81 | 1015.1 |
| 20260906042720 | 74 | 344 | 0.0 | 0.0 | 0.00 | 0.00 | 0.00 | 81 | 1015.3 |
| 20260906042619 | 74 | 344 | 0.0 | 0.0 | 0.00 | 0.00 | 0.00 | 81 | 1015.3 |
| 20260906042516 | 74 | 344 | 0.0 | 0.0 | 0.00 | 0.00 | 0.00 | 81 | 1015.1 |
| 20260906042410 | 74 | 344 | 0.0 | 0.0 | 0.00 | 0.00 | 0.00 | 81 | 1015.1 |
| 20260906042310 | 74 | 344 | 0.0 | 0.0 | 0.00 | 0.00 | 0.00 | 81 | 1015.1 |
| 20260906042211 | 74 | 344 | 0.0 | 0.0 | 0.00 | 0.00 | 0.00 | 81 | 1015.0 |
| 20260906042111 | 74 | 343 | 0.0 | 0.0 | 0.00 | 0.00 | 0.00 | 81 | 1015.1 |
| 20260906042009 | 74 | 344 | 0.0 | 0.0 | 0.00 | 0.00 | 0.00 | 81 | 1015.1 |
| 20260906041902 | 74 | 233 | 0.0 | 0.0 | 0.00 | 0.00 | 0.00 | 82 | 1015.1 |
| 20260906041802 | 74 | 229 | 0.0 | 0.0 | 0.00 | 0.00 | 0.00 | 82 | 1015.1 |
| 20260906041703 | 74 | 229 | 0.0 | 0.0 | 0.00 | 0.00 | 0.00 | 82 | 1015.1 |
| 20260906041602 | 74 | 229 | 0.0 | 0.0 | 0.00 | 0.00 | 0.00 | 82 | 1015.1 |
| 20260906041503 | 74 | 230 | 0.0 | 0.0 | 0.00 | 0.00 | 0.00 | 82 | 1015.1 |
| 20260906041402 | 74 | 230 | 0.0 | 0.0 | 0.00 | 0.00 | 0.00 | 82 | 1015.0 |
| 20260906041300 | 74 | 230 | 0.0 | 0.0 | 0.00 | 0.00 | 0.00 | 82 | 1015.3 |
| 20260906041200 | 74 | 230 | 0.0 | 0.0 | 0.00 | 0.00 | 0.00 | 82 | 1015.1 |
| 20260906041100 | 74 | 230 | 0.0 | 0.0 | 0.00 | 0.00 | 0.00 | 82 | 1015.3 |
| 20260906040956 | 74 | 230 | 0.0 | 0.0 | 0.00 | 0.00 | 0.00 | 82 | 1015.1 |
| 20260906040857 | 74 | 230 | 0.0 | 0.0 | 0.00 | 0.00 | 0.00 | 83 | 1015.1 |
| 20260906040755 | 74 | 230 | 0.0 | 0.0 | 0.00 | 0.00 | 0.00 | 83 | 1015.3 |
| 20260906040656 | 74 | 230 | 0.0 | 0.0 | 0.00 | 0.00 | 0.00 | 83 | 1015.4 |
| 20260906040552 | 74 | 230 | 0.0 | 0.0 | 0.00 | 0.00 | 0.00 | 83 | 1015.3 |
| 20260906040453 | 74 | 230 | 0.0 | 0.0 | 0.00 | 0.00 | 0.00 | 82 | 1015.3 |
| 20260906040354 | 74 | 230 | 0.0 | 0.0 | 0.00 | 0.00 | 0.00 | 82 | 1015.3 |
| 20260906040254 | 74 | 231 | 0.0 | 0.0 | 0.00 | 0.00 | 0.00 | 82 | 1015.3 |
| 20260906040152 | 74 | 231 | 0.0 | 0.0 | 0.00 | 0.00 | 0.00 | 82 | 1015.3 |
| 20260906040050 | 74 | 232 | 0.0 | 0.0 | 0.00 | 0.00 | 0.00 | 82 | 1015.3 |
| 20260906035950 | 74 | 232 | 0.0 | 0.0 | 0.00 | 0.00 | 0.00 | 82 | 1015.1 |
| 20260906035850 | 74 | 233 | 0.0 | 0.0 | 0.00 | 0.00 | 0.00 | 82 | 1015.1 |
| 20260906035752 | 74 | 234 | 0.0 | 0.0 | 0.00 | 0.00 | 0.00 | 82 | 1015.1 |
| 20260906035646 | 74 | 234 | 0.0 | 0.0 | 0.00 | 0.00 | 0.00 | 82 | 1015.1 |
| 20260906035546 | 74 | 232 | 0.0 | 0.0 | 0.00 | 0.00 | 0.00 | 82 | 1015.1 |
| 20260906035447 | 74 | 234 | 0.0 | 0.0 | 0.00 | 0.00 | 0.00 | 82 | 1015.1 |
| 20260906035347 | 74 | 248 | 0.0 | 0.0 | 0.00 | 0.00 | 0.00 | 82 | 1015.1 |
| 20260906035247 | 74 | 247 | 0.0 | 0.0 | 0.00 | 0.00 | 0.00 | 82 | 1015.3 |
| 20260906035146 | 74 | 249 | 0.0 | 0.0 | 0.00 | 0.00 | 0.00 | 82 | 1015.1 |
| 20260906035047 | 74 | 273 | 0.0 | 0.0 | 0.00 | 0.00 | 0.00 | 82 | 1015.1 |
| 20260906034947 | 75 | 273 | 0.0 | 0.0 | 0.00 | 0.00 | 0.00 | 82 | 1015.1 |
| 20260906034846 | 75 | 238 | 0.0 | 0.0 | 0.00 | 0.00 | 0.00 | 83 | 1015.1 |
| 20260906034747 | 75 | 238 | 0.0 | 0.0 | 0.00 | 0.00 | 0.00 | 83 | 1015.1 |
| 20260906034648 | 75 | 238 | 0.0 | 0.0 | 0.00 | 0.00 | 0.00 | 83 | 1015.0 |
| 20260906034546 | 75 | 239 | 0.0 | 0.0 | 0.00 | 0.00 | 0.00 | 83 | 1015.1 |
| 20260906034447 | 75 | 239 | 0.0 | 0.0 | 0.00 | 0.00 | 0.00 | 83 | 1015.3 |
| 20260906034346 | 75 | 239 | 0.0 | 0.0 | 0.00 | 0.00 | 0.00 | 83 | 1015.1 |
| 20260906034246 | 75 | 223 | 0.0 | 0.0 | 0.00 | 0.00 | 0.00 | 83 | 1015.3 |
| 20260906034148 | 75 | 228 | 0.0 | 0.0 | 0.00 | 0.00 | 0.00 | 82 | 1015.3 |
| 20260906034047 | 75 | 231 | 0.0 | 0.0 | 0.00 | 0.00 | 0.00 | 82 | 1015.1 |
| 20260906033948 | 75 | 232 | 0.0 | 0.0 | 0.00 | 0.00 | 0.00 | 82 | 1015.3 |
| 20260906033846 | 75 | 234 | 0.0 | 0.0 | 0.00 | 0.00 | 0.00 | 82 | 1015.1 |
| 20260906033746 | 75 | 234 | 0.0 | 0.0 | 0.00 | 0.00 | 0.00 | 82 | 1015.3 |
| 20260906033648 | 75 | 235 | 0.0 | 0.0 | 0.00 | 0.00 | 0.00 | 82 | 1015.5 |
| 20260906033547 | 75 | 236 | 0.0 | 0.0 | 0.00 | 0.00 | 0.00 | 82 | 1015.4 |
| 20260906033446 | 75 | 236 | 0.0 | 0.0 | 0.00 | 0.00 | 0.00 | 81 | 1015.5 |
| 20260906033346 | 75 | 236 | 0.0 | 0.0 | 0.00 | 0.00 | 0.00 | 81 | 1015.4 |
| 20260906033247 | 75 | 239 | 0.0 | 0.0 | 0.00 | 0.00 | 0.00 | 81 | 1015.4 |
| 20260906033147 | 75 | 239 | 0.0 | 0.0 | 0.00 | 0.00 | 0.00 | 81 | 1015.4 |
| 20260906033047 | 75 | 240 | 0.0 | 0.0 | 0.00 | 0.00 | 0.00 | 81 | 1015.4 |
| 20260906032946 | 75 | 240 | 0.0 | 0.0 | 0.00 | 0.00 | 0.00 | 81 | 1015.5 |
| 20260906032846 | 75 | 240 | 0.0 | 0.0 | 0.00 | 0.00 | 0.00 | 81 | 1015.4 |
| 20260906032746 | 75 | 240 | 0.0 | 0.0 | 0.00 | 0.00 | 0.00 | 80 | 1015.4 |
| 20260906032647 | 75 | 240 | 0.0 | 0.0 | 0.00 | 0.00 | 0.00 | 80 | 1015.4 |
| 20260906032547 | 75 | 240 | 0.0 | 0.0 | 0.00 | 0.00 | 0.00 | 81 | 1015.4 |
| 20260906032448 | 75 | 240 | 0.0 | 0.0 | 0.00 | 0.00 | 0.00 | 80 | 1015.3 |
| 20260906032342 | 75 | 245 | 0.0 | 0.0 | 0.00 | 0.00 | 0.00 | 80 | 1015.3 |
| 20260906032244 | 75 | 246 | 0.0 | 0.0 | 0.00 | 0.00 | 0.00 | 80 | 1015.4 |
| 20260906032142 | 75 | 247 | 0.0 | 0.0 | 0.00 | 0.00 | 0.00 | 80 | 1015.4 |
| 20260906032043 | 76 | 248 | 0.0 | 0.0 | 0.00 | 0.00 | 0.00 | 80 | 1015.4 |
| 20260906031943 | 76 | 248 | 0.0 | 0.0 | 0.00 | 0.00 | 0.00 | 80 | 1015.4 |
| 20260906031843 | 76 | 249 | 0.0 | 0.0 | 0.00 | 0.00 | 0.00 | 80 | 1015.5 |
| 20260906031743 | 76 | 249 | 0.0 | 0.0 | 0.00 | 0.00 | 0.00 | 80 | 1015.5 |
| 20260906031643 | 76 | 249 | 0.0 | 0.0 | 0.00 | 0.00 | 0.00 | 80 | 1015.4 |
| 20260906031544 | 76 | 248 | 0.0 | 0.0 | 0.00 | 0.00 | 0.00 | 79 | 1015.4 |
| 20260906031442 | 76 | 248 | 0.0 | 0.0 | 0.00 | 0.00 | 0.00 | 79 | 1015.3 |
| 20260906031344 | 76 | 249 | 0.0 | 0.0 | 0.00 | 0.00 | 0.00 | 79 | 1015.3 |
| 20260906031242 | 76 | 249 | 0.0 | 0.0 | 0.00 | 0.00 | 0.00 | 79 | 1015.3 |
| 20260906031142 | 76 | 250 | 0.0 | 0.0 | 0.00 | 0.00 | 0.00 | 78 | 1015.3 |
| 20260906031044 | 76 | 250 | 0.0 | 0.0 | 0.00 | 0.00 | 0.00 | 78 | 1015.3 |
| 20260906030943 | 76 | 278 | 0.0 | 0.0 | 0.00 | 0.00 | 0.00 | 78 | 1015.4 |
| 20260906030843 | 76 | 279 | 0.0 | 0.0 | 0.00 | 0.00 | 0.00 | 78 | 1015.3 |
| 20260906030742 | 76 | 278 | 0.0 | 0.0 | 0.00 | 0.00 | 0.00 | 78 | 1015.3 |
| 20260906030643 | 76 | 290 | 0.0 | 0.0 | 0.00 | 0.00 | 0.00 | 78 | 1015.3 |
| 20260906030542 | 76 | 307 | 0.0 | 0.0 | 0.00 | 0.00 | 0.00 | 78 | 1015.4 |
| 20260906030442 | 76 | 309 | 0.0 | 0.0 | 0.00 | 0.00 | 0.00 | 78 | 1015.4 |
| 20260906030343 | 76 | 309 | 0.0 | 0.0 | 0.00 | 0.00 | 0.00 | 78 | 1015.5 |
| 20260906030244 | 76 | 309 | 0.0 | 0.0 | 0.00 | 0.00 | 0.00 | 77 | 1015.4 |
| 20260906030142 | 76 | 299 | 0.0 | 0.0 | 0.00 | 0.00 | 0.00 | 77 | 1015.5 |
| 20260906030044 | 76 | 300 | 0.0 | 0.0 | 0.00 | 0.00 | 0.00 | 77 | 1015.4 |
| 20260906025942 | 76 | 302 | 0.0 | 0.0 | 0.00 | 0.00 | 0.00 | 77 | 1015.4 |
| 20260906025843 | 76 | 296 | 0.0 | 0.0 | 0.00 | 0.00 | 0.00 | 76 | 1015.4 |
| 20260906025742 | 76 | 302 | 0.0 | 0.0 | 0.00 | 0.00 | 0.00 | 76 | 1015.4 |
| 20260906025642 | 76 | 302 | 0.0 | 0.0 | 0.00 | 0.00 | 0.00 | 76 | 1015.3 |
| 20260906025543 | 76 | 288 | 0.0 | 0.0 | 0.00 | 0.00 | 0.00 | 76 | 1015.3 |
| 20260906025442 | 76 | 302 | 0.0 | 0.0 | 0.00 | 0.00 | 0.00 | 76 | 1015.3 |
| 20260906025343 | 76 | 319 | 0.0 | 0.0 | 0.00 | 0.00 | 0.00 | 76 | 1015.4 |
| 20260906025243 | 76 | 297 | 0.0 | 0.0 | 0.00 | 0.00 | 0.00 | 76 | 1015.3 |
| 20260906025144 | 76 | 297 | 0.0 | 0.0 | 0.00 | 0.00 | 0.00 | 76 | 1015.3 |
| 20260906025040 | 76 | 297 | 0.0 | 0.0 | 0.00 | 0.00 | 0.00 | 76 | 1015.3 |
| 20260906024938 | 76 | 300 | 0.0 | 0.0 | 0.00 | 0.00 | 0.00 | 75 | 1015.1 |
| 20260906024840 | 76 | 300 | 0.0 | 0.0 | 0.00 | 0.00 | 0.00 | 75 | 1015.3 |
| 20260906024739 | 76 | 298 | 0.0 | 0.0 | 0.00 | 0.00 | 0.00 | 75 | 1015.1 |
| 20260906024639 | 76 | 298 | 0.0 | 0.0 | 0.00 | 0.00 | 0.00 | 75 | 1015.0 |
| 20260906024538 | 76 | 298 | 0.0 | 0.0 | 0.00 | 0.00 | 0.00 | 75 | 1015.0 |
| 20260906024438 | 76 | 312 | 0.0 | 0.0 | 0.00 | 0.00 | 0.00 | 76 | 1015.0 |
| 20260906024340 | 76 | 303 | 0.0 | 0.0 | 0.00 | 0.00 | 0.00 | 75 | 1014.9 |
| 20260906024238 | 76 | 295 | 0.0 | 0.0 | 0.00 | 0.00 | 0.00 | 75 | 1014.9 |
| 20260906024138 | 76 | 311 | 0.0 | 0.0 | 0.00 | 0.00 | 0.00 | 76 | 1014.9 |
| 20260906024040 | 76 | 283 | 0.0 | 0.0 | 0.00 | 0.00 | 0.00 | 75 | 1015.0 |
| 20260906023938 | 76 | 296 | 0.0 | 0.0 | 0.00 | 0.00 | 0.00 | 76 | 1015.0 |
| 20260906023839 | 76 | 302 | 0.0 | 0.0 | 0.00 | 0.00 | 0.00 | 76 | 1015.0 |
| 20260906023738 | 76 | 292 | 0.0 | 0.0 | 0.00 | 0.00 | 0.00 | 76 | 1015.0 |
| 20260906023638 | 76 | 279 | 0.0 | 0.0 | 0.00 | 0.00 | 0.00 | 76 | 1015.0 |
| 20260906023538 | 76 | 273 | 0.0 | 0.0 | 0.00 | 0.00 | 0.00 | 77 | 1014.9 |
| 20260906023438 | 76 | 286 | 0.0 | 0.0 | 0.00 | 0.00 | 0.00 | 77 | 1015.0 |
| 20260906023340 | 76 | 305 | 0.0 | 0.0 | 0.00 | 0.00 | 0.00 | 76 | 1015.0 |
| 20260906023236 | 76 | 275 | 0.0 | 0.0 | 0.00 | 0.00 | 0.00 | 76 | 1015.0 |
| 20260906023137 | 76 | 303 | 0.0 | 0.0 | 0.00 | 0.00 | 0.00 | 77 | 1015.1 |
| 20260906023034 | 76 | 317 | 0.0 | 0.0 | 0.00 | 0.00 | 0.00 | 76 | 1015.1 |
| 20260906022930 | 76 | 289 | 0.0 | 0.0 | 0.00 | 0.00 | 0.00 | 76 | 1015.1 |
| 20260906022831 | 76 | 323 | 0.0 | 0.0 | 0.00 | 0.00 | 0.00 | 76 | 1015.1 |
| 20260906022729 | 76 | 263 | 0.0 | 0.0 | 0.00 | 0.00 | 0.00 | 76 | 1015.1 |
| 20260906022621 | 77 | 294 | 0.0 | 0.0 | 0.00 | 0.00 | 0.00 | 76 | 1015.1 |
| 20260906022520 | 77 | 310 | 0.0 | 0.0 | 0.00 | 0.00 | 0.00 | 76 | 1015.1 |
| 20260906022418 | 77 | 297 | 0.0 | 0.0 | 0.00 | 0.00 | 0.00 | 76 | 1015.3 |
| 20260906022318 | 77 | 300 | 0.0 | 0.0 | 0.00 | 0.00 | 0.00 | 76 | 1015.3 |
| 20260906022217 | 77 | 266 | 0.0 | 0.0 | 0.00 | 0.00 | 0.00 | 76 | 1015.1 |
| 20260906022113 | 77 | 296 | 0.0 | 0.0 | 0.00 | 0.00 | 0.00 | 76 | 1015.1 |
| 20260906022013 | 77 | 288 | 0.0 | 0.0 | 0.00 | 0.00 | 0.00 | 75 | 1015.1 |
| 20260906021912 | 77 | 267 | 0.0 | 0.0 | 0.00 | 0.00 | 0.00 | 76 | 1015.1 |
| 20260906021814 | 77 | 295 | 0.0 | 0.0 | 0.00 | 0.00 | 0.00 | 76 | 1015.0 |
| 20260906021710 | 77 | 288 | 0.0 | 0.0 | 0.00 | 0.00 | 0.00 | 75 | 1015.1 |
| 20260906021610 | 77 | 291 | 0.0 | 0.0 | 0.00 | 0.00 | 0.00 | 75 | 1015.1 |
| 20260906021508 | 77 | 288 | 0.0 | 0.0 | 0.00 | 0.00 | 0.00 | 75 | 1015.3 |
| 20260906021406 | 77 | 294 | 0.0 | 0.0 | 0.00 | 0.00 | 0.00 | 75 | 1015.3 |
| 20260906021307 | 77 | 278 | 0.0 | 0.0 | 0.00 | 0.00 | 0.00 | 75 | 1015.1 |
| 20260906021203 | 77 | 305 | 0.0 | 0.0 | 0.00 | 0.00 | 0.00 | 75 | 1015.1 |
| 20260906021054 | 77 | 292 | 0.0 | 0.0 | 0.00 | 0.00 | 0.00 | 75 | 1015.1 |
| 20260906020953 | 77 | 311 | 0.0 | 0.0 | 0.00 | 0.00 | 0.00 | 75 | 1015.0 |
| 20260906020854 | 77 | 301 | 0.0 | 0.0 | 0.00 | 0.00 | 0.00 | 74 | 1015.0 |
| 20260906020752 | 77 | 288 | 0.0 | 0.0 | 0.00 | 0.00 | 0.00 | 75 | 1014.9 |
| 20260906020653 | 77 | 293 | 0.0 | 0.0 | 0.00 | 0.00 | 0.00 | 74 | 1015.0 |
| 20260906020550 | 77 | 282 | 0.0 | 0.0 | 0.00 | 0.00 | 0.00 | 74 | 1014.9 |
| 20260906020449 | 77 | 270 | 0.0 | 0.0 | 0.00 | 0.00 | 0.00 | 74 | 1014.9 |
| 20260906020352 | 77 | 284 | 0.0 | 0.0 | 0.00 | 0.00 | 0.00 | 74 | 1014.9 |
| 20260906020249 | 77 | 281 | 0.0 | 0.0 | 0.00 | 0.00 | 0.00 | 74 | 1014.8 |
| 20260906020147 | 77 | 277 | 0.0 | 0.0 | 0.00 | 0.00 | 0.00 | 74 | 1014.9 |
| 20260906020045 | 77 | 292 | 0.0 | 0.0 | 0.00 | 0.00 | 0.00 | 74 | 1015.0 |
| 20260906015944 | 77 | 306 | 0.0 | 0.0 | 0.00 | 0.00 | 0.00 | 74 | 1015.0 |
| 20260906015842 | 77 | 313 | 0.0 | 0.0 | 0.00 | 0.00 | 0.00 | 74 | 1014.9 |
| 20260906015744 | 77 | 282 | 0.0 | 0.0 | 0.00 | 0.00 | 0.00 | 75 | 1014.9 |
| 20260906015641 | 77 | 273 | 0.0 | 0.0 | 0.00 | 0.00 | 0.00 | 74 | 1014.9 |
| 20260906015538 | 77 | 274 | 0.0 | 0.0 | 0.00 | 0.00 | 0.00 | 74 | 1014.9 |
| 20260906015434 | 77 | 283 | 0.0 | 0.0 | 0.00 | 0.00 | 0.00 | 74 | 1014.9 |
| 20260906015334 | 77 | 308 | 0.0 | 0.0 | 0.00 | 0.00 | 0.00 | 74 | 1014.9 |
| 20260906015234 | 77 | 294 | 0.0 | 0.0 | 0.00 | 0.00 | 0.00 | 74 | 1015.0 |
| 20260906015130 | 77 | 312 | 0.0 | 0.0 | 0.00 | 0.00 | 0.00 | 74 | 1014.9 |
| 20260906015023 | 77 | 303 | 0.0 | 0.0 | 0.00 | 0.00 | 0.00 | 74 | 1014.9 |
| 20260906014923 | 77 | 304 | 0.0 | 0.0 | 0.00 | 0.00 | 0.00 | 74 | 1015.0 |
| 20260906014822 | 77 | 292 | 0.0 | 0.0 | 0.00 | 0.00 | 0.00 | 74 | 1014.8 |
| 20260906014722 | 77 | 313 | 0.0 | 0.0 | 0.00 | 0.00 | 0.00 | 74 | 1014.9 |
| 20260906014623 | 77 | 296 | 0.0 | 0.0 | 0.00 | 0.00 | 0.00 | 74 | 1014.9 |
| 20260906014519 | 77 | 293 | 0.0 | 0.0 | 0.00 | 0.00 | 0.00 | 74 | 1015.0 |
| 20260906014416 | 77 | 291 | 0.0 | 0.0 | 0.00 | 0.00 | 0.00 | 74 | 1014.9 |
| 20260906014318 | 77 | 307 | 0.0 | 0.0 | 0.00 | 0.00 | 0.00 | 74 | 1014.9 |
| 20260906014216 | 77 | 296 | 0.0 | 0.0 | 0.00 | 0.00 | 0.00 | 74 | 1014.9 |
| 20260906014117 | 77 | 325 | 0.0 | 0.0 | 0.00 | 0.00 | 0.00 | 74 | 1015.0 |
| 20260906014007 | 77 | 294 | 0.0 | 0.0 | 0.00 | 0.00 | 0.00 | 74 | 1014.9 |
| 20260906013907 | 77 | 296 | 0.0 | 0.0 | 0.00 | 0.00 | 0.00 | 74 | 1014.8 |
| 20260906013806 | 77 | 298 | 0.0 | 0.0 | 0.00 | 0.00 | 0.00 | 74 | 1014.9 |
| 20260906013707 | 77 | 278 | 0.0 | 0.0 | 0.00 | 0.00 | 0.00 | 73 | 1014.8 |
| 20260906013607 | 77 | 286 | 0.0 | 0.0 | 0.00 | 0.00 | 0.00 | 73 | 1014.8 |
| 20260906013500 | 77 | 317 | 0.0 | 0.0 | 0.00 | 0.00 | 0.00 | 73 | 1014.9 |
| 20260906013400 | 77 | 300 | 0.0 | 0.0 | 0.00 | 0.00 | 0.00 | 73 | 1014.9 |
| 20260906013300 | 77 | 287 | 0.0 | 0.0 | 0.00 | 0.00 | 0.00 | 73 | 1014.9 |
| 20260906013202 | 78 | 309 | 0.0 | 0.0 | 0.00 | 0.00 | 0.00 | 73 | 1014.8 |
| 20260906013100 | 78 | 309 | 0.0 | 0.0 | 0.00 | 0.00 | 0.00 | 73 | 1014.8 |
| 20260906013002 | 78 | 304 | 0.0 | 0.0 | 0.00 | 0.00 | 0.00 | 73 | 1014.9 |
| 20260906012858 | 78 | 303 | 0.0 | 0.0 | 0.00 | 0.00 | 0.00 | 73 | 1014.9 |
| 20260906012758 | 78 | 292 | 0.0 | 0.0 | 0.00 | 0.00 | 0.00 | 73 | 1014.9 |
| 20260906012656 | 78 | 298 | 0.0 | 0.0 | 0.00 | 0.00 | 0.00 | 73 | 1014.9 |
| 20260906012553 | 78 | 298 | 0.0 | 0.0 | 0.00 | 0.00 | 0.00 | 73 | 1014.8 |
| 20260906012443 | 78 | 281 | 0.0 | 0.0 | 0.00 | 0.00 | 0.00 | 72 | 1014.9 |
| 20260906012343 | 78 | 288 | 0.0 | 0.0 | 0.00 | 0.00 | 0.00 | 72 | 1014.9 |
| 20260906012243 | 78 | 303 | 0.0 | 0.0 | 0.00 | 0.00 | 0.00 | 72 | 1014.9 |
| 20260906012142 | 78 | 270 | 0.0 | 0.0 | 0.00 | 0.00 | 0.00 | 72 | 1014.8 |
| 20260906012043 | 78 | 271 | 0.0 | 0.0 | 0.00 | 0.00 | 0.00 | 71 | 1014.7 |
| 20260906011939 | 78 | 288 | 0.0 | 0.0 | 0.00 | 0.00 | 0.00 | 71 | 1014.8 |
| 20260906011839 | 78 | 288 | 0.0 | 0.0 | 0.00 | 0.00 | 0.00 | 71 | 1014.8 |
| 20260906011738 | 78 | 288 | 0.0 | 0.0 | 0.00 | 0.00 | 0.00 | 71 | 1014.7 |
| 20260906011638 | 78 | 286 | 0.0 | 0.0 | 0.00 | 0.00 | 0.00 | 71 | 1014.8 |
| 20260906011535 | 78 | 292 | 0.0 | 0.0 | 0.00 | 0.00 | 0.00 | 71 | 1014.7 |
| 20260906011432 | 78 | 282 | 0.0 | 0.0 | 0.00 | 0.00 | 0.00 | 71 | 1014.7 |
| 20260906011332 | 78 | 285 | 0.0 | 0.0 | 0.00 | 0.00 | 0.00 | 71 | 1014.8 |
| 20260906011233 | 78 | 300 | 0.0 | 0.0 | 0.00 | 0.00 | 0.00 | 71 | 1014.8 |
| 20260906011131 | 78 | 300 | 0.0 | 0.0 | 0.00 | 0.00 | 0.00 | 70 | 1014.7 |
| 20260906011029 | 78 | 288 | 0.0 | 0.0 | 0.00 | 0.00 | 0.00 | 70 | 1014.7 |
| 20260906010924 | 78 | 286 | 0.0 | 0.0 | 0.00 | 0.00 | 0.00 | 70 | 1014.7 |
| 20260906010822 | 78 | 289 | 0.0 | 0.0 | 0.00 | 0.00 | 0.00 | 70 | 1014.7 |
| 20260906010720 | 78 | 282 | 0.0 | 0.0 | 0.00 | 0.00 | 0.00 | 70 | 1014.7 |
| 20260906010622 | 78 | 303 | 0.0 | 0.0 | 0.00 | 0.00 | 0.00 | 70 | 1014.7 |
| 20260906010519 | 78 | 304 | 0.0 | 0.0 | 0.00 | 0.00 | 0.00 | 70 | 1014.6 |
| 20260906010420 | 78 | 319 | 0.0 | 0.0 | 0.00 | 0.00 | 0.00 | 70 | 1014.6 |
| 20260906010316 | 78 | 320 | 0.0 | 0.0 | 0.00 | 0.00 | 0.00 | 71 | 1014.6 |
| 20260906010216 | 78 | 317 | 0.0 | 0.0 | 0.00 | 0.00 | 0.00 | 71 | 1014.5 |
| 20260906010115 | 78 | 293 | 0.0 | 0.0 | 0.00 | 0.00 | 0.00 | 71 | 1014.6 |
| 20260906010012 | 78 | 293 | 0.0 | 0.0 | 0.00 | 0.00 | 0.00 | 71 | 1014.5 |
| 20260906005908 | 78 | 292 | 0.0 | 0.0 | 0.00 | 0.00 | 0.00 | 71 | 1014.6 |
| 20260906005807 | 78 | 259 | 0.0 | 0.0 | 0.00 | 0.00 | 0.00 | 72 | 1014.5 |
| 20260906005707 | 78 | 282 | 0.0 | 0.0 | 0.00 | 0.00 | 0.00 | 72 | 1014.5 |
| 20260906005606 | 78 | 282 | 0.0 | 0.0 | 0.00 | 0.00 | 0.00 | 72 | 1014.5 |
| 20260906005507 | 78 | 282 | 0.0 | 0.0 | 0.00 | 0.00 | 0.00 | 72 | 1014.5 |
| 20260906005401 | 78 | 277 | 0.0 | 0.0 | 0.00 | 0.00 | 0.00 | 72 | 1014.4 |
| 20260906005301 | 78 | 271 | 0.0 | 0.0 | 0.00 | 0.00 | 0.00 | 72 | 1014.5 |
| 20260906005201 | 78 | 288 | 0.0 | 0.0 | 0.00 | 0.00 | 0.00 | 72 | 1014.5 |
| 20260906005059 | 78 | 289 | 0.0 | 0.0 | 0.00 | 0.00 | 0.00 | 72 | 1014.5 |
| 20260906004956 | 78 | 287 | 0.0 | 0.0 | 0.00 | 0.00 | 0.00 | 72 | 1014.5 |
| 20260906004853 | 78 | 300 | 0.0 | 0.0 | 0.00 | 0.00 | 0.00 | 72 | 1014.5 |
| 20260906004750 | 78 | 303 | 0.0 | 0.0 | 0.00 | 0.00 | 0.00 | 72 | 1014.5 |
| 20260906004651 | 78 | 302 | 0.0 | 0.0 | 0.00 | 0.00 | 0.00 | 72 | 1014.5 |
| 20260906004551 | 78 | 302 | 0.0 | 0.0 | 0.00 | 0.00 | 0.00 | 72 | 1014.5 |
| 20260906004451 | 78 | 304 | 0.0 | 0.0 | 0.00 | 0.00 | 0.00 | 72 | 1014.5 |
| 20260906004347 | 78 | 297 | 0.0 | 0.0 | 0.00 | 0.00 | 0.00 | 72 | 1014.5 |
| 20260906004247 | 78 | 298 | 0.0 | 0.0 | 0.00 | 0.00 | 0.00 | 72 | 1014.4 |
| 20260906004146 | 78 | 296 | 0.0 | 0.0 | 0.00 | 0.00 | 0.00 | 72 | 1014.4 |
| 20260906004047 | 78 | 292 | 0.0 | 0.0 | 0.00 | 0.00 | 0.00 | 72 | 1014.4 |
| 20260906003944 | 78 | 294 | 0.0 | 0.0 | 0.00 | 0.00 | 0.00 | 72 | 1014.4 |
| 20260906003838 | 78 | 291 | 0.0 | 0.0 | 0.00 | 0.00 | 0.00 | 72 | 1014.4 |
| 20260906003738 | 78 | 306 | 0.0 | 0.0 | 0.00 | 0.00 | 0.00 | 72 | 1014.4 |
| 20260906003637 | 78 | 304 | 0.0 | 0.0 | 0.00 | 0.00 | 0.00 | 72 | 1014.4 |
| 20260906003537 | 78 | 305 | 0.0 | 0.0 | 0.00 | 0.00 | 0.00 | 73 | 1014.4 |
| 20260906003435 | 78 | 295 | 0.0 | 0.0 | 0.00 | 0.00 | 0.00 | 73 | 1014.4 |
| 20260906003336 | 78 | 307 | 0.0 | 0.0 | 0.00 | 0.00 | 0.00 | 73 | 1014.4 |
| 20260906003232 | 78 | 281 | 0.0 | 0.0 | 0.00 | 0.00 | 0.00 | 73 | 1014.3 |
| 20260906003132 | 78 | 281 | 0.0 | 0.0 | 0.00 | 0.00 | 0.00 | 73 | 1014.4 |
| 20260906003031 | 78 | 280 | 0.0 | 0.0 | 0.00 | 0.00 | 0.00 | 73 | 1014.4 |
| 20260906002929 | 78 | 275 | 0.0 | 0.0 | 0.00 | 0.00 | 0.00 | 73 | 1014.4 |
| 20260906002828 | 78 | 271 | 0.0 | 0.0 | 0.00 | 0.00 | 0.00 | 74 | 1014.3 |
| 20260906002727 | 78 | 272 | 0.0 | 0.0 | 0.00 | 0.00 | 0.00 | 74 | 1014.3 |
| 20260906002627 | 78 | 272 | 0.0 | 0.0 | 0.00 | 0.00 | 0.00 | 74 | 1014.3 |
| 20260906002525 | 78 | 272 | 0.0 | 0.0 | 0.00 | 0.00 | 0.00 | 74 | 1014.3 |
| 20260906002423 | 78 | 275 | 0.0 | 0.0 | 0.00 | 0.00 | 0.00 | 74 | 1014.2 |
| 20260906002314 | 78 | 274 | 0.0 | 0.0 | 0.00 | 0.00 | 0.00 | 74 | 1014.2 |
| 20260906002213 | 78 | 275 | 0.0 | 0.0 | 0.00 | 0.00 | 0.00 | 74 | 1014.1 |
| 20260906002113 | 78 | 275 | 0.0 | 0.0 | 0.00 | 0.00 | 0.00 | 73 | 1014.1 |
| 20260906002012 | 78 | 274 | 0.0 | 0.0 | 0.00 | 0.00 | 0.00 | 73 | 1014.1 |
| 20260906001912 | 78 | 275 | 0.0 | 0.0 | 0.00 | 0.00 | 0.00 | 74 | 1013.9 |
| 20260906001807 | 78 | 275 | 0.0 | 0.0 | 0.00 | 0.00 | 0.00 | 73 | 1014.0 |
| 20260906001706 | 78 | 275 | 0.0 | 0.0 | 0.00 | 0.00 | 0.00 | 73 | 1013.9 |
| 20260906001606 | 78 | 276 | 0.0 | 0.0 | 0.00 | 0.00 | 0.00 | 73 | 1014.0 |
| 20260906001506 | 78 | 271 | 0.0 | 0.0 | 0.00 | 0.00 | 0.00 | 74 | 1014.0 |
| 20260906001406 | 78 | 271 | 0.0 | 0.0 | 0.00 | 0.00 | 0.00 | 73 | 1014.0 |
| 20260906001305 | 78 | 276 | 0.0 | 0.0 | 0.00 | 0.00 | 0.00 | 74 | 1013.9 |
| 20260906001204 | 78 | 277 | 0.0 | 0.0 | 0.00 | 0.00 | 0.00 | 74 | 1013.9 |
| 20260906001104 | 78 | 277 | 0.0 | 0.0 | 0.00 | 0.00 | 0.00 | 74 | 1014.0 |
| 20260906001003 | 78 | 277 | 0.0 | 0.0 | 0.00 | 0.00 | 0.00 | 73 | 1013.9 |
| 20260906000901 | 78 | 276 | 0.0 | 0.0 | 0.00 | 0.00 | 0.00 | 74 | 1013.9 |
| 20260906000754 | 78 | 270 | 0.0 | 0.0 | 0.00 | 0.00 | 0.00 | 74 | 1013.9 |
| 20260906000655 | 78 | 270 | 0.0 | 0.0 | 0.00 | 0.00 | 0.00 | 74 | 1013.9 |
| 20260906000554 | 78 | 270 | 0.0 | 0.0 | 0.00 | 0.00 | 0.00 | 74 | 1013.9 |
| 20260906000455 | 78 | 267 | 0.0 | 0.0 | 0.00 | 0.00 | 0.00 | 74 | 1013.9 |
| 20260906000350 | 78 | 267 | 0.0 | 0.0 | 0.00 | 0.00 | 0.00 | 74 | 1014.0 |
| 20260906000249 | 78 | 265 | 0.0 | 0.0 | 0.00 | 0.00 | 0.00 | 74 | 1014.0 |
| 20260906000148 | 78 | 268 | 0.0 | 0.0 | 0.00 | 0.00 | 0.00 | 74 | 1013.9 |
| 20260906000048 | 78 | 283 | 0.0 | 0.0 | 0.00 | 0.00 | 0.00 | 74 | 1013.9 |
| 20260905235947 | 78 | 296 | 0.0 | 0.0 | 0.00 | 0.00 | 0.00 | 75 | 1013.9 |
| 20260905235846 | 78 | 270 | 0.0 | 0.0 | 0.00 | 0.00 | 0.00 | 74 | 1013.8 |
| 20260905235745 | 78 | 301 | 0.0 | 0.0 | 0.00 | 0.00 | 0.00 | 74 | 1013.8 |
| 20260905235642 | 78 | 278 | 0.0 | 0.0 | 0.00 | 0.00 | 0.00 | 75 | 1013.8 |
| 20260905235543 | 78 | 267 | 0.0 | 0.0 | 0.00 | 0.00 | 0.00 | 74 | 1013.8 |
| 20260905235441 | 78 | 269 | 0.0 | 0.0 | 0.00 | 0.00 | 0.00 | 74 | 1013.8 |
| 20260905235339 | 78 | 273 | 0.0 | 0.0 | 0.00 | 0.00 | 0.00 | 74 | 1013.7 |
| 20260905235231 | 78 | 271 | 0.0 | 0.0 | 0.00 | 0.00 | 0.00 | 74 | 1013.7 |
| 20260905235128 | 78 | 271 | 0.0 | 0.0 | 0.00 | 0.00 | 0.00 | 75 | 1013.5 |
| 20260905235028 | 78 | 280 | 0.0 | 0.0 | 0.00 | 0.00 | 0.00 | 74 | 1013.7 |
| 20260905234928 | 78 | 279 | 0.0 | 0.0 | 0.00 | 0.00 | 0.00 | 75 | 1013.7 |
| 20260905234829 | 78 | 278 | 0.0 | 0.0 | 0.00 | 0.00 | 0.00 | 74 | 1013.7 |
| 20260905234728 | 78 | 279 | 0.0 | 0.0 | 0.00 | 0.00 | 0.00 | 75 | 1013.7 |
| 20260905234626 | 78 | 302 | 0.0 | 0.0 | 0.00 | 0.00 | 0.00 | 75 | 1013.8 |
| 20260905234524 | 78 | 302 | 0.0 | 0.0 | 0.00 | 0.00 | 0.00 | 74 | 1013.8 |
| 20260905234426 | 78 | 302 | 0.0 | 0.0 | 0.00 | 0.00 | 0.00 | 74 | 1013.8 |
| 20260905234323 | 78 | 302 | 0.0 | 0.0 | 0.00 | 0.00 | 0.00 | 75 | 1013.7 |
| 20260905234219 | 78 | 234 | 0.0 | 0.0 | 0.00 | 0.00 | 0.00 | 74 | 1013.7 |
| 20260905234119 | 78 | 234 | 0.0 | 0.0 | 0.00 | 0.00 | 0.00 | 74 | 1013.8 |
| 20260905234017 | 78 | 234 | 0.0 | 0.0 | 0.00 | 0.00 | 0.00 | 74 | 1013.7 |
| 20260905233920 | 78 | 234 | 0.0 | 0.0 | 0.00 | 0.00 | 0.00 | 74 | 1013.7 |
| 20260905233817 | 78 | 234 | 0.0 | 0.0 | 0.00 | 0.00 | 0.00 | 74 | 1013.7 |
| 20260905233706 | 78 | 225 | 0.0 | 0.0 | 0.00 | 0.00 | 0.00 | 74 | 1013.8 |
| 20260905233605 | 78 | 225 | 0.0 | 0.0 | 0.00 | 0.00 | 0.00 | 74 | 1013.8 |
| 20260905233506 | 78 | 225 | 0.0 | 0.0 | 0.00 | 0.00 | 0.00 | 74 | 1013.8 |
| 20260905233406 | 78 | 225 | 0.0 | 0.0 | 0.00 | 0.00 | 0.00 | 74 | 1013.8 |
| 20260905233307 | 78 | 205 | 0.0 | 0.0 | 0.00 | 0.00 | 0.00 | 73 | 1013.7 |
| 20260905233202 | 78 | 193 | 0.0 | 0.0 | 0.00 | 0.00 | 0.00 | 73 | 1013.7 |
| 20260905233102 | 79 | 193 | 0.0 | 0.0 | 0.00 | 0.00 | 0.00 | 73 | 1013.8 |
| 20260905233003 | 79 | 193 | 0.0 | 0.0 | 0.00 | 0.00 | 0.00 | 73 | 1013.7 |
| 20260905232903 | 79 | 193 | 0.0 | 0.0 | 0.00 | 0.00 | 0.00 | 73 | 1013.7 |
| 20260905232801 | 79 | 193 | 0.0 | 0.0 | 0.00 | 0.00 | 0.00 | 73 | 1013.8 |
| 20260905232658 | 79 | 193 | 0.0 | 0.0 | 0.00 | 0.00 | 0.00 | 73 | 1013.7 |
| 20260905232558 | 79 | 193 | 0.0 | 0.0 | 0.00 | 0.00 | 0.00 | 73 | 1013.7 |
| 20260905232457 | 79 | 193 | 0.0 | 0.0 | 0.00 | 0.00 | 0.00 | 73 | 1013.7 |
| 20260905232357 | 79 | 193 | 0.0 | 0.0 | 0.00 | 0.00 | 0.00 | 73 | 1013.8 |
| 20260905232255 | 79 | 193 | 0.0 | 0.0 | 0.00 | 0.00 | 0.00 | 73 | 1013.7 |
| 20260905232148 | 79 | 193 | 0.0 | 0.0 | 0.00 | 0.00 | 0.00 | 73 | 1013.8 |
| 20260905232049 | 79 | 193 | 0.0 | 0.0 | 0.00 | 0.00 | 0.00 | 73 | 1013.8 |
| 20260905231946 | 79 | 193 | 0.0 | 0.0 | 0.00 | 0.00 | 0.00 | 73 | 1013.7 |
| 20260905231847 | 79 | 193 | 0.0 | 0.0 | 0.00 | 0.00 | 0.00 | 73 | 1013.7 |
| 20260905231745 | 79 | 193 | 0.0 | 0.0 | 0.00 | 0.00 | 0.00 | 73 | 1013.8 |
| 20260905231644 | 79 | 194 | 0.0 | 0.0 | 0.00 | 0.00 | 0.00 | 72 | 1013.7 |
| 20260905231543 | 79 | 194 | 0.0 | 0.0 | 0.00 | 0.00 | 0.00 | 72 | 1013.7 |
| 20260905231442 | 79 | 194 | 0.0 | 0.0 | 0.00 | 0.00 | 0.00 | 72 | 1013.7 |
| 20260905231342 | 79 | 194 | 0.0 | 0.0 | 0.00 | 0.00 | 0.00 | 72 | 1013.7 |
| 20260905231239 | 80 | 194 | 0.0 | 0.0 | 0.00 | 0.00 | 0.00 | 72 | 1013.7 |
| 20260905231139 | 80 | 194 | 0.0 | 0.0 | 0.00 | 0.00 | 0.00 | 72 | 1013.7 |
| 20260905231037 | 80 | 194 | 0.0 | 0.0 | 0.00 | 0.00 | 0.00 | 72 | 1013.4 |
| 20260905230936 | 80 | 194 | 0.0 | 0.0 | 0.00 | 0.00 | 0.00 | 72 | 1013.4 |
| 20260905230836 | 80 | 194 | 0.0 | 0.0 | 0.00 | 0.00 | 0.00 | 71 | 1013.4 |
| 20260905230732 | 80 | 194 | 0.0 | 0.0 | 0.00 | 0.00 | 0.00 | 72 | 1013.5 |
| 20260905230626 | 80 | 194 | 0.0 | 0.0 | 0.00 | 0.00 | 0.00 | 71 | 1013.5 |
| 20260905230527 | 80 | 194 | 0.0 | 0.0 | 0.00 | 0.00 | 0.00 | 71 | 1013.4 |
| 20260905230425 | 80 | 194 | 0.0 | 0.0 | 0.00 | 0.00 | 0.00 | 71 | 1013.5 |
| 20260905230324 | 80 | 194 | 0.0 | 0.0 | 0.00 | 0.00 | 0.00 | 71 | 1013.5 |
| 20260905230223 | 80 | 194 | 0.0 | 0.0 | 0.00 | 0.00 | 0.00 | 71 | 1013.5 |
| 20260905230117 | 80 | 194 | 0.0 | 0.0 | 0.00 | 0.00 | 0.00 | 71 | 1013.5 |
| 20260905230017 | 80 | 194 | 0.0 | 0.0 | 0.00 | 0.00 | 0.00 | 71 | 1013.7 |
| 20260905225917 | 80 | 237 | 0.0 | 0.0 | 0.00 | 0.00 | 0.00 | 71 | 1013.7 |
| 20260905225817 | 80 | 238 | 0.0 | 0.0 | 0.00 | 0.00 | 0.00 | 71 | 1013.5 |
| 20260905225717 | 80 | 238 | 0.0 | 0.0 | 0.00 | 0.00 | 0.00 | 71 | 1013.7 |
| 20260905225616 | 80 | 237 | 0.0 | 0.0 | 0.00 | 0.00 | 0.00 | 71 | 1013.5 |
| 20260905225515 | 80 | 237 | 0.0 | 0.0 | 0.00 | 0.00 | 0.00 | 71 | 1013.5 |
| 20260905225414 | 80 | 237 | 0.0 | 0.0 | 0.00 | 0.00 | 0.00 | 71 | 1013.5 |
| 20260905225313 | 80 | 237 | 0.0 | 0.0 | 0.00 | 0.00 | 0.00 | 71 | 1013.5 |
| 20260905225211 | 80 | 237 | 0.0 | 0.0 | 0.00 | 0.00 | 0.00 | 70 | 1013.7 |
| 20260905225103 | 80 | 237 | 0.0 | 0.0 | 0.00 | 0.00 | 0.00 | 70 | 1013.5 |
| 20260905225001 | 80 | 237 | 0.0 | 0.0 | 0.00 | 0.00 | 0.00 | 70 | 1013.5 |
| 20260905224900 | 80 | 237 | 0.0 | 0.0 | 0.00 | 0.00 | 0.00 | 70 | 1013.5 |
| 20260905224801 | 80 | 237 | 0.0 | 0.0 | 0.00 | 0.00 | 0.00 | 70 | 1013.5 |
| 20260905224701 | 80 | 237 | 0.0 | 0.0 | 0.00 | 0.00 | 0.00 | 70 | 1013.5 |
| 20260905224557 | 80 | 237 | 0.0 | 0.0 | 0.00 | 0.00 | 0.00 | 70 | 1013.5 |
| 20260905224457 | 80 | 237 | 0.0 | 0.0 | 0.00 | 0.00 | 0.00 | 69 | 1013.7 |
| 20260905224357 | 80 | 237 | 0.0 | 0.0 | 0.00 | 0.00 | 0.00 | 70 | 1013.7 |
| 20260905224257 | 81 | 226 | 0.0 | 0.0 | 0.00 | 0.00 | 0.00 | 71 | 1013.8 |
| 20260905224154 | 81 | 226 | 0.0 | 0.0 | 0.00 | 0.00 | 0.00 | 70 | 1013.7 |
| 20260905224055 | 81 | 226 | 0.0 | 0.0 | 0.00 | 0.00 | 0.00 | 69 | 1013.7 |
| 20260905223954 | 81 | 226 | 0.0 | 0.0 | 0.00 | 0.00 | 0.00 | 70 | 1013.7 |
| 20260905223850 | 81 | 226 | 0.0 | 0.0 | 0.00 | 0.00 | 0.00 | 69 | 1013.8 |
| 20260905223751 | 81 | 225 | 0.0 | 0.0 | 0.00 | 0.00 | 0.00 | 68 | 1013.8 |
| 20260905223650 | 81 | 225 | 0.0 | 0.0 | 0.00 | 0.00 | 0.00 | 69 | 1013.8 |
| 20260905223543 | 81 | 218 | 0.0 | 0.0 | 0.00 | 0.00 | 0.00 | 69 | 1013.8 |
| 20260905223442 | 81 | 196 | 0.0 | 0.0 | 0.00 | 0.00 | 0.00 | 69 | 1013.8 |
| 20260905223342 | 81 | 196 | 0.0 | 0.0 | 0.00 | 0.00 | 0.00 | 69 | 1013.8 |